Time,TemperatureF,DewpointF,PressureIn,WindDirection,WindDirectionDegrees,WindSpeedMPH,WindSpeedGustMPH,Humidity,HourlyPrecipIn,Conditions,Clouds,dailyrainin,SoftwareType,DateUTC
2013-04-25 00:00:00,32.7,30.9,29.84,South,180,0.0,0.0,93,0.03,,,0.01,VWS V12.07,2013-04-25 05:00:00,
2013-04-25 00:01:00,32.7,30.9,29.84,South,180,0.0,0.0,93,0.03,,,0.01,VWS V12.07,2013-04-25 05:01:00,
2013-04-25 00:03:00,32.7,30.9,29.84,South,180,0.0,1.0,93,0.03,,,0.02,VWS V12.07,2013-04-25 05:03:00,
2013-04-25 00:05:00,32.7,30.9,29.84,South,180,0.0,1.0,93,0.04,,,0.02,VWS V12.07,2013-04-25 05:05:00,
2013-04-25 00:06:00,32.7,31.2,29.84,South,180,0.0,1.0,94,0.04,,,0.02,VWS V12.07,2013-04-25 05:06:00,
2013-04-25 00:09:00,32.7,31.2,29.84,South,180,0.0,0.0,94,0.04,,,0.02,VWS V12.07,2013-04-25 05:09:00,
2013-04-25 00:10:00,32.5,31.0,29.84,South,180,0.0,0.0,94,0.04,,,0.02,VWS V12.07,2013-04-25 05:10:00,
2013-04-25 00:12:00,32.5,31.0,29.84,South,180,0.0,0.0,94,0.05,,,0.03,VWS V12.07,2013-04-25 05:12:00,
2013-04-25 00:15:00,32.5,31.2,29.84,South,180,0.0,0.0,95,0.05,,,0.03,VWS V12.07,2013-04-25 05:15:00,
2013-04-25 00:17:00,32.5,31.2,29.84,South,180,0.0,0.0,95,0.05,,,0.03,VWS V12.07,2013-04-25 05:17:00,
2013-04-25 00:20:00,32.5,31.2,29.84,South,180,0.0,0.0,95,0.05,,,0.03,VWS V12.07,2013-04-25 05:20:00,
2013-04-25 00:22:00,32.4,31.4,29.84,South,180,0.0,0.0,96,0.06,,,0.04,VWS V12.07,2013-04-25 05:22:00,
2013-04-25 00:25:00,32.4,31.4,29.84,South,180,0.0,0.0,96,0.06,,,0.04,VWS V12.07,2013-04-25 05:25:00,
2013-04-25 00:26:00,32.4,31.4,29.84,South,180,0.0,0.0,96,0.06,,,0.04,VWS V12.07,2013-04-25 05:26:00,
2013-04-25 00:28:00,32.4,31.4,29.84,South,180,0.0,0.0,96,0.06,,,0.04,VWS V12.07,2013-04-25 05:28:00,
2013-04-25 00:30:00,32.4,31.4,29.84,South,180,0.0,0.0,96,0.07,,,0.05,VWS V12.07,2013-04-25 05:30:00,
2013-04-25 00:31:00,32.4,31.4,29.84,South,180,0.0,0.0,96,0.07,,,0.05,VWS V12.07,2013-04-25 05:31:00,
2013-04-25 00:32:00,32.4,31.6,29.84,South,180,0.0,0.0,97,0.07,,,0.05,VWS V12.07,2013-04-25 05:32:00,
2013-04-25 00:33:00,32.4,31.6,29.84,South,180,0.0,0.0,97,0.07,,,0.05,VWS V12.07,2013-04-25 05:33:00,
2013-04-25 00:35:00,32.4,31.6,29.84,South,180,0.0,0.0,97,0.07,,,0.05,VWS V12.07,2013-04-25 05:35:00,
2013-04-25 00:36:00,32.2,31.5,29.84,South,180,0.0,0.0,97,0.06,,,0.05,VWS V12.07,2013-04-25 05:36:00,
2013-04-25 00:37:00,32.2,31.5,29.84,South,180,0.0,0.0,97,0.06,,,0.05,VWS V12.07,2013-04-25 05:37:00,
2013-04-25 00:38:00,32.2,31.5,29.84,South,180,0.0,0.0,97,0.06,,,0.05,VWS V12.07,2013-04-25 05:38:00,
2013-04-25 00:39:00,32.2,31.5,29.84,South,180,0.0,0.0,97,0.06,,,0.05,VWS V12.07,2013-04-25 05:39:00,
2013-04-25 00:40:00,32.2,31.5,29.84,South,180,0.0,0.0,97,0.06,,,0.05,VWS V12.07,2013-04-25 05:40:00,
2013-04-25 00:41:00,32.2,31.5,29.84,South,180,0.0,0.0,97,0.06,,,0.05,VWS V12.07,2013-04-25 05:41:00,
2013-04-25 00:42:00,32.2,31.7,29.84,South,180,0.0,0.0,98,0.06,,,0.05,VWS V12.07,2013-04-25 05:42:00,
2013-04-25 00:43:00,32.2,31.7,29.84,South,180,0.0,0.0,98,0.06,,,0.05,VWS V12.07,2013-04-25 05:43:00,
2013-04-25 00:44:00,32.2,31.7,29.83,South,180,0.0,0.0,98,0.06,,,0.05,VWS V12.07,2013-04-25 05:44:00,
2013-04-25 00:45:00,32.2,31.7,29.83,South,180,0.0,0.0,98,0.06,,,0.06,VWS V12.07,2013-04-25 05:45:00,
2013-04-25 00:46:00,32.2,31.7,29.83,South,180,0.0,0.0,98,0.06,,,0.06,VWS V12.07,2013-04-25 05:46:00,
2013-04-25 00:47:00,32.2,31.7,29.83,South,180,0.0,0.0,98,0.06,,,0.06,VWS V12.07,2013-04-25 05:47:00,
2013-04-25 00:48:00,32.2,31.7,29.83,South,180,0.0,0.0,98,0.06,,,0.05,VWS V12.07,2013-04-25 05:48:00,
2013-04-25 00:50:00,32.2,31.7,29.83,South,180,0.0,0.0,98,0.06,,,0.06,VWS V12.07,2013-04-25 05:50:00,
2013-04-25 00:51:00,32.2,31.7,29.83,South,180,0.0,0.0,98,0.06,,,0.06,VWS V12.07,2013-04-25 05:51:00,
2013-04-25 00:52:00,32.2,31.7,29.83,South,180,0.0,0.0,98,0.06,,,0.06,VWS V12.07,2013-04-25 05:52:00,
2013-04-25 00:53:00,32.2,31.7,29.83,South,180,0.0,0.0,98,0.06,,,0.06,VWS V12.07,2013-04-25 05:53:00,
2013-04-25 00:55:00,32.2,31.7,29.83,South,180,0.0,0.0,98,0.06,,,0.06,VWS V12.07,2013-04-25 05:55:00,
2013-04-25 00:56:00,32.2,31.7,29.83,South,180,0.0,0.0,98,0.05,,,0.06,VWS V12.07,2013-04-25 05:56:00,
2013-04-25 00:58:00,32.2,31.7,29.83,South,180,0.0,0.0,98,0.05,,,0.06,VWS V12.07,2013-04-25 05:58:00,
2013-04-25 01:01:00,32.2,31.7,29.83,South,180,0.0,0.0,98,0.05,,,0.06,VWS V12.07,2013-04-25 06:01:00,
2013-04-25 01:02:00,32.2,31.7,29.83,South,180,0.0,0.0,98,0.05,,,0.06,VWS V12.07,2013-04-25 06:02:00,
2013-04-25 01:03:00,32.2,31.7,29.83,South,180,0.0,0.0,98,0.05,,,0.06,VWS V12.07,2013-04-25 06:03:00,
2013-04-25 01:04:00,32.2,32.0,29.83,South,180,0.0,0.0,99,0.05,,,0.06,VWS V12.07,2013-04-25 06:04:00,
2013-04-25 01:07:00,32.2,32.0,29.83,South,180,0.0,0.0,99,0.04,,,0.06,VWS V12.07,2013-04-25 06:07:00,
2013-04-25 01:08:00,32.2,32.0,29.83,South,180,0.0,0.0,99,0.04,,,0.06,VWS V12.07,2013-04-25 06:08:00,
2013-04-25 01:09:00,32.2,32.0,29.83,South,180,0.0,0.0,99,0.04,,,0.06,VWS V12.07,2013-04-25 06:09:00,
2013-04-25 01:12:00,32.1,31.9,29.83,South,180,0.0,0.0,99,0.04,,,0.06,VWS V12.07,2013-04-25 06:12:00,
2013-04-25 01:13:00,32.1,31.9,29.83,South,180,0.0,0.0,99,0.04,,,0.06,VWS V12.07,2013-04-25 06:13:00,
2013-04-25 01:14:00,32.1,31.9,29.83,South,180,0.0,0.0,99,0.04,,,0.06,VWS V12.07,2013-04-25 06:14:00,
2013-04-25 01:15:00,32.1,31.9,29.83,South,180,0.0,0.0,99,0.04,,,0.06,VWS V12.07,2013-04-25 06:15:00,
2013-04-25 01:17:00,32.1,31.9,29.83,South,180,0.0,0.0,99,0.03,,,0.06,VWS V12.07,2013-04-25 06:17:00,
2013-04-25 01:18:00,32.1,31.9,29.83,South,180,0.0,0.0,99,0.04,,,0.06,VWS V12.07,2013-04-25 06:18:00,
2013-04-25 01:19:00,32.1,31.9,29.83,South,180,0.0,0.0,99,0.03,,,0.06,VWS V12.07,2013-04-25 06:19:00,
2013-04-25 01:21:00,32.1,31.9,29.83,South,180,0.0,0.0,99,0.03,,,0.06,VWS V12.07,2013-04-25 06:21:00,
2013-04-25 01:22:00,32.1,31.9,29.83,South,180,0.0,0.0,99,0.03,,,0.06,VWS V12.07,2013-04-25 06:22:00,
2013-04-25 01:23:00,32.1,31.9,29.83,South,180,0.0,0.0,99,0.03,,,0.06,VWS V12.07,2013-04-25 06:23:00,
2013-04-25 01:24:00,32.1,31.9,29.83,South,180,0.0,0.0,99,0.03,,,0.06,VWS V12.07,2013-04-25 06:24:00,
2013-04-25 01:26:00,32.1,31.9,29.83,South,180,0.0,0.0,99,0.02,,,0.06,VWS V12.07,2013-04-25 06:26:00,
2013-04-25 01:28:00,32.1,31.9,29.83,South,180,0.0,0.0,99,0.02,,,0.06,VWS V12.07,2013-04-25 06:28:00,
2013-04-25 01:29:00,32.1,31.9,29.83,South,180,0.0,0.0,99,0.02,,,0.06,VWS V12.07,2013-04-25 06:29:00,
2013-04-25 01:30:00,32.1,31.9,29.83,South,180,0.0,0.0,99,0.02,,,0.06,VWS V12.07,2013-04-25 06:30:00,
2013-04-25 01:32:00,31.9,31.6,29.83,South,180,0.0,0.0,99,0.02,,,0.06,VWS V12.07,2013-04-25 06:32:00,
2013-04-25 01:33:00,31.9,31.6,29.83,South,180,0.0,0.0,99,0.02,,,0.06,VWS V12.07,2013-04-25 06:33:00,
2013-04-25 01:34:00,31.9,31.6,29.83,South,180,0.0,0.0,99,0.02,,,0.06,VWS V12.07,2013-04-25 06:34:00,
2013-04-25 01:35:00,31.9,31.6,29.83,South,180,0.0,0.0,99,0.01,,,0.06,VWS V12.07,2013-04-25 06:35:00,
2013-04-25 01:37:00,31.9,31.6,29.83,South,180,0.0,0.0,99,0.01,,,0.06,VWS V12.07,2013-04-25 06:37:00,
2013-04-25 01:38:00,31.9,31.6,29.83,South,180,0.0,0.0,99,0.01,,,0.06,VWS V12.07,2013-04-25 06:38:00,
2013-04-25 01:39:00,31.9,31.6,29.83,South,180,0.0,0.0,99,0.01,,,0.06,VWS V12.07,2013-04-25 06:39:00,
2013-04-25 01:40:00,31.9,31.6,29.83,South,180,0.0,0.0,99,0.01,,,0.06,VWS V12.07,2013-04-25 06:40:00,
2013-04-25 01:41:00,31.9,31.6,29.83,South,180,0.0,0.0,99,0.01,,,0.06,VWS V12.07,2013-04-25 06:41:00,
2013-04-25 01:43:00,31.9,31.6,29.83,South,180,0.0,0.0,99,0.01,,,0.06,VWS V12.07,2013-04-25 06:43:00,
2013-04-25 01:45:00,31.8,31.5,29.83,South,180,0.0,0.0,99,0.01,,,0.06,VWS V12.07,2013-04-25 06:45:00,
2013-04-25 01:46:00,31.8,31.5,29.83,South,180,0.0,0.0,99,0.01,,,0.06,VWS V12.07,2013-04-25 06:46:00,
2013-04-25 01:48:00,31.8,31.5,29.83,South,180,0.0,0.0,99,0.01,,OVC014,0.06,VWS V12.07,2013-04-25 06:48:00,
2013-04-25 01:49:00,31.8,31.5,29.83,South,180,0.0,0.0,99,0.01,,OVC014,0.06,VWS V12.07,2013-04-25 06:49:00,
2013-04-25 01:50:00,31.8,31.5,29.83,South,180,0.0,0.0,99,0.01,,OVC014,0.06,VWS V12.07,2013-04-25 06:50:00,
2013-04-25 01:51:00,31.8,31.5,29.83,South,180,0.0,0.0,99,0.01,,OVC014,0.06,VWS V12.07,2013-04-25 06:51:00,
2013-04-25 01:53:00,31.8,31.5,29.83,South,180,0.0,0.0,99,0.01,,OVC014,0.06,VWS V12.07,2013-04-25 06:53:00,
2013-04-25 01:54:00,31.8,31.5,29.83,South,180,0.0,0.0,99,0.01,,OVC014,0.06,VWS V12.07,2013-04-25 06:54:00,
2013-04-25 01:56:00,31.8,31.5,29.83,South,180,0.0,0.0,99,0.00,,OVC014,0.06,VWS V12.07,2013-04-25 06:56:00,
2013-04-25 01:57:00,31.8,31.5,29.83,South,180,0.0,0.0,99,0.00,,OVC014,0.06,VWS V12.07,2013-04-25 06:57:00,
2013-04-25 01:58:00,31.8,31.5,29.83,South,180,0.0,0.0,99,0.00,,OVC014,0.06,VWS V12.07,2013-04-25 06:58:00,
2013-04-25 01:59:00,31.8,31.5,29.83,South,180,0.0,0.0,99,0.00,,OVC014,0.06,VWS V12.07,2013-04-25 06:59:00,
2013-04-25 02:01:00,31.8,31.5,29.83,South,180,0.0,0.0,99,0.00,,OVC014,0.06,VWS V12.07,2013-04-25 07:01:00,
2013-04-25 02:02:00,31.8,31.5,29.83,South,180,0.0,0.0,99,0.00,,OVC014,0.06,VWS V12.07,2013-04-25 07:02:00,
2013-04-25 02:03:00,31.6,31.4,29.83,South,180,0.0,0.0,99,0.00,,OVC014,0.06,VWS V12.07,2013-04-25 07:03:00,
2013-04-25 02:04:00,31.6,31.4,29.83,South,180,0.0,0.0,99,0.00,,OVC014,0.06,VWS V12.07,2013-04-25 07:04:00,
2013-04-25 02:07:00,31.6,31.4,29.83,South,180,0.0,0.0,99,0.00,,OVC014,0.06,VWS V12.07,2013-04-25 07:07:00,
2013-04-25 02:08:00,31.6,31.4,29.83,South,180,0.0,0.0,99,0.00,,OVC014,0.06,VWS V12.07,2013-04-25 07:08:00,
2013-04-25 02:09:00,31.6,31.4,29.83,South,180,0.0,0.0,99,0.00,,OVC014,0.06,VWS V12.07,2013-04-25 07:09:00,
2013-04-25 02:12:00,31.6,31.4,29.83,South,180,0.0,0.0,99,0.00,,OVC014,0.06,VWS V12.07,2013-04-25 07:12:00,
2013-04-25 02:13:00,31.6,31.4,29.83,South,180,0.0,0.0,99,0.00,,OVC014,0.06,VWS V12.07,2013-04-25 07:13:00,
2013-04-25 02:14:00,31.6,31.4,29.83,South,180,0.0,0.0,99,0.00,,OVC014,0.06,VWS V12.07,2013-04-25 07:14:00,
2013-04-25 02:15:00,31.6,31.4,29.83,South,180,0.0,0.0,99,0.00,,OVC014,0.06,VWS V12.07,2013-04-25 07:15:00,
2013-04-25 02:17:00,31.6,31.4,29.83,South,180,0.0,0.0,99,0.00,,OVC014,0.06,VWS V12.07,2013-04-25 07:17:00,
2013-04-25 02:18:00,31.6,31.4,29.83,South,180,0.0,0.0,99,0.00,,OVC014,0.06,VWS V12.07,2013-04-25 07:18:00,
2013-04-25 02:19:00,31.6,31.4,29.83,South,180,0.0,0.0,99,0.00,,OVC014,0.06,VWS V12.07,2013-04-25 07:19:00,
2013-04-25 02:20:00,31.6,31.4,29.83,South,180,0.0,0.0,99,0.00,,OVC014,0.06,VWS V12.07,2013-04-25 07:20:00,
2013-04-25 02:23:00,31.6,31.6,29.83,South,180,0.0,0.0,100,0.00,,OVC014,0.06,VWS V12.07,2013-04-25 07:23:00,
2013-04-25 02:24:00,31.6,31.6,29.83,South,180,0.0,0.0,100,0.00,,OVC014,0.06,VWS V12.07,2013-04-25 07:24:00,
2013-04-25 02:25:00,31.6,31.4,29.83,South,180,0.0,0.0,99,0.00,,OVC014,0.06,VWS V12.07,2013-04-25 07:25:00,
2013-04-25 02:28:00,31.5,31.2,29.83,South,180,0.0,0.0,99,0.00,,OVC014,0.06,VWS V12.07,2013-04-25 07:28:00,
2013-04-25 02:29:00,31.5,31.2,29.83,South,180,0.0,0.0,99,0.00,,OVC014,0.06,VWS V12.07,2013-04-25 07:29:00,
2013-04-25 02:30:00,31.5,31.2,29.83,South,180,0.0,0.0,99,0.00,,OVC014,0.06,VWS V12.07,2013-04-25 07:30:00,
2013-04-25 02:33:00,31.5,31.2,29.83,South,180,0.0,0.0,99,0.00,,OVC014,0.06,VWS V12.07,2013-04-25 07:33:00,
2013-04-25 02:34:00,31.5,31.2,29.83,South,180,0.0,0.0,99,0.00,,OVC014,0.06,VWS V12.07,2013-04-25 07:34:00,
2013-04-25 02:36:00,31.5,31.2,29.83,South,180,0.0,0.0,99,0.00,,OVC014,0.06,VWS V12.07,2013-04-25 07:36:00,
2013-04-25 02:38:00,31.5,31.2,29.83,South,180,0.0,0.0,99,0.00,,OVC014,0.06,VWS V12.07,2013-04-25 07:38:00,
2013-04-25 02:39:00,31.5,31.2,29.83,South,180,0.0,0.0,99,0.00,,OVC014,0.06,VWS V12.07,2013-04-25 07:39:00,
2013-04-25 02:41:00,31.5,31.2,29.83,South,180,0.0,0.0,99,0.00,,OVC023,0.06,VWS V12.07,2013-04-25 07:41:00,
2013-04-25 02:44:00,31.3,31.0,29.84,South,180,0.0,0.0,99,0.00,,OVC014,0.06,VWS V12.07,2013-04-25 07:44:00,
2013-04-25 02:45:00,31.3,31.0,29.84,South,180,0.0,0.0,99,0.00,,OVC014,0.06,VWS V12.07,2013-04-25 07:45:00,
2013-04-25 02:47:00,31.3,31.0,29.84,South,180,0.0,0.0,99,0.00,,OVC014,0.06,VWS V12.07,2013-04-25 07:47:00,
2013-04-25 02:49:00,31.3,31.0,29.84,South,180,0.0,0.0,99,0.00,,OVC031,0.06,VWS V12.07,2013-04-25 07:49:00,
2013-04-25 02:50:00,31.3,31.0,29.84,South,180,0.0,0.0,99,0.00,,OVC031,0.06,VWS V12.07,2013-04-25 07:50:00,
2013-04-25 02:52:00,31.3,31.0,29.84,South,180,0.0,0.0,99,0.00,,OVC031,0.06,VWS V12.07,2013-04-25 07:52:00,
2013-04-25 02:54:00,31.3,31.3,29.84,South,180,0.0,0.0,100,0.00,,OVC031,0.06,VWS V12.07,2013-04-25 07:54:00,
2013-04-25 02:55:00,31.3,31.3,29.84,South,180,0.0,0.0,100,0.00,,OVC031,0.06,VWS V12.07,2013-04-25 07:55:00,
2013-04-25 02:56:00,31.3,31.3,29.84,South,180,0.0,0.0,100,0.00,,OVC031,0.06,VWS V12.07,2013-04-25 07:56:00,
2013-04-25 02:57:00,31.3,31.3,29.84,South,180,0.0,0.0,100,0.00,,OVC031,0.06,VWS V12.07,2013-04-25 07:57:00,
2013-04-25 02:59:00,31.3,31.3,29.84,South,180,0.0,0.0,100,0.00,,OVC031,0.06,VWS V12.07,2013-04-25 07:59:00,
2013-04-25 03:00:00,31.3,31.3,29.84,South,180,0.0,0.0,100,0.00,,OVC031,0.06,VWS V12.07,2013-04-25 08:00:00,
2013-04-25 03:01:00,31.3,31.3,29.84,South,180,0.0,0.0,100,0.00,,OVC031,0.06,VWS V12.07,2013-04-25 08:01:00,
2013-04-25 03:02:00,31.3,31.3,29.84,South,180,0.0,0.0,100,0.00,,OVC031,0.06,VWS V12.07,2013-04-25 08:02:00,
2013-04-25 03:04:00,31.3,31.3,29.84,South,180,0.0,0.0,100,0.00,,OVC031,0.06,VWS V12.07,2013-04-25 08:04:00,
2013-04-25 03:05:00,31.3,31.3,29.84,South,180,0.0,0.0,100,0.00,,OVC031,0.06,VWS V12.07,2013-04-25 08:05:00,
2013-04-25 03:06:00,31.5,31.5,29.84,South,180,0.0,0.0,100,0.00,,OVC031,0.06,VWS V12.07,2013-04-25 08:06:00,
2013-04-25 03:07:00,31.5,31.5,29.84,South,180,0.0,0.0,100,0.00,,OVC031,0.06,VWS V12.07,2013-04-25 08:07:00,
2013-04-25 03:10:00,31.5,31.5,29.84,NE,51,0.0,0.0,100,0.00,,OVC031,0.06,VWS V12.07,2013-04-25 08:10:00,
2013-04-25 03:11:00,31.5,31.5,29.84,NE,51,0.0,0.0,100,0.00,,OVC031,0.06,VWS V12.07,2013-04-25 08:11:00,
2013-04-25 03:12:00,31.5,31.5,29.84,NE,51,0.0,0.0,100,0.00,,OVC031,0.06,VWS V12.07,2013-04-25 08:12:00,
2013-04-25 03:15:00,31.5,31.5,29.85,NE,51,0.0,0.0,100,0.00,,OVC031,0.06,VWS V12.07,2013-04-25 08:15:00,
2013-04-25 03:16:00,31.5,31.5,29.85,NE,51,0.0,0.0,100,0.00,,OVC031,0.06,VWS V12.07,2013-04-25 08:16:00,
2013-04-25 03:17:00,31.5,31.5,29.85,NE,51,0.0,0.0,100,0.00,,OVC031,0.06,VWS V12.07,2013-04-25 08:17:00,
2013-04-25 03:21:00,31.5,31.5,29.85,NE,51,0.0,0.0,100,0.00,,OVC031,0.06,VWS V12.07,2013-04-25 08:21:00,
2013-04-25 03:22:00,31.5,31.5,29.85,NE,51,0.0,0.0,100,0.00,,OVC031,0.06,VWS V12.07,2013-04-25 08:22:00,
2013-04-25 03:23:00,31.5,31.5,29.85,NE,51,0.0,0.0,100,0.00,,OVC031,0.06,VWS V12.07,2013-04-25 08:23:00,
2013-04-25 03:26:00,31.5,31.5,29.85,NE,51,0.0,0.0,100,0.01,,OVC031,0.07,VWS V12.07,2013-04-25 08:26:00,
2013-04-25 03:28:00,31.5,31.5,29.85,NE,51,0.0,0.0,100,0.01,,OVC031,0.07,VWS V12.07,2013-04-25 08:28:00,
2013-04-25 03:31:00,31.5,31.5,29.85,NE,51,0.0,0.0,100,0.01,,OVC031,0.07,VWS V12.07,2013-04-25 08:31:00,
2013-04-25 03:33:00,31.5,31.5,29.85,NE,51,0.0,0.0,100,0.01,,OVC031,0.07,VWS V12.07,2013-04-25 08:33:00,
2013-04-25 03:34:00,31.5,31.5,29.85,NE,51,0.0,0.0,100,0.01,,OVC033,0.07,VWS V12.07,2013-04-25 08:34:00,
2013-04-25 03:36:00,31.5,31.5,29.85,NE,51,0.0,0.0,100,0.01,,OVC033,0.07,VWS V12.07,2013-04-25 08:36:00,
2013-04-25 03:37:00,31.3,31.3,29.85,NE,51,0.0,0.0,100,0.01,,OVC033,0.07,VWS V12.07,2013-04-25 08:37:00,
2013-04-25 03:38:00,31.3,31.3,29.85,NE,51,0.0,0.0,100,0.01,,OVC033,0.07,VWS V12.07,2013-04-25 08:38:00,
2013-04-25 03:39:00,31.3,31.3,29.85,NE,51,0.0,0.0,100,0.01,,OVC033,0.07,VWS V12.07,2013-04-25 08:39:00,
2013-04-25 03:42:00,31.3,31.3,29.85,NE,51,0.0,0.0,100,0.02,,OVC033,0.08,VWS V12.07,2013-04-25 08:42:00,
2013-04-25 03:43:00,31.3,31.3,29.85,NE,51,0.0,0.0,100,0.02,,OVC033,0.08,VWS V12.07,2013-04-25 08:43:00,
2013-04-25 03:44:00,31.3,31.3,29.86,NE,51,0.0,0.0,100,0.02,,OVC033,0.08,VWS V12.07,2013-04-25 08:44:00,
2013-04-25 03:47:00,31.3,31.3,29.86,NE,51,0.0,0.0,100,0.02,,OVC033,0.08,VWS V12.07,2013-04-25 08:47:00,
2013-04-25 03:48:00,31.3,31.3,29.86,NE,51,0.0,0.0,100,0.02,,OVC033,0.08,VWS V12.07,2013-04-25 08:48:00,
2013-04-25 03:49:00,31.3,31.3,29.86,NE,51,0.0,0.0,100,0.02,,OVC031,0.08,VWS V12.07,2013-04-25 08:49:00,
2013-04-25 03:50:00,31.3,31.3,29.86,NE,51,0.0,0.0,100,0.02,,OVC031,0.08,VWS V12.07,2013-04-25 08:50:00,
2013-04-25 03:52:00,31.3,31.3,29.86,NE,51,0.0,0.0,100,0.02,,BKN048,0.08,VWS V12.07,2013-04-25 08:52:00,
2013-04-25 03:53:00,31.3,31.3,29.86,NE,51,0.0,0.0,100,0.02,,BKN048,0.08,VWS V12.07,2013-04-25 08:53:00,
2013-04-25 03:54:00,31.3,31.3,29.86,NE,51,0.0,0.0,100,0.02,,BKN048,0.08,VWS V12.07,2013-04-25 08:54:00,
2013-04-25 03:55:00,31.3,31.3,29.86,NE,51,0.0,0.0,100,0.02,,BKN048,0.08,VWS V12.07,2013-04-25 08:55:00,
2013-04-25 03:57:00,31.3,31.3,29.86,NE,51,0.0,0.0,100,0.02,,BKN048,0.08,VWS V12.07,2013-04-25 08:57:00,
2013-04-25 03:59:00,31.3,31.3,29.86,NE,51,0.0,0.0,100,0.02,,BKN048,0.08,VWS V12.07,2013-04-25 08:59:00,
2013-04-25 04:01:00,31.2,31.2,29.86,NE,51,0.0,0.0,100,0.02,,BKN048,0.08,VWS V12.07,2013-04-25 09:01:00,
2013-04-25 04:03:00,31.2,31.2,29.86,NE,51,0.0,0.0,100,0.02,,BKN048,0.08,VWS V12.07,2013-04-25 09:03:00,
2013-04-25 04:04:00,31.2,31.2,29.86,NE,51,0.0,0.0,100,0.02,,BKN048,0.08,VWS V12.07,2013-04-25 09:04:00,
2013-04-25 04:05:00,31.2,31.2,29.86,NE,51,0.0,0.0,100,0.02,,BKN048,0.08,VWS V12.07,2013-04-25 09:05:00,
2013-04-25 04:06:00,31.2,31.2,29.86,NE,51,0.0,0.0,100,0.02,,BKN048,0.08,VWS V12.07,2013-04-25 09:06:00,
2013-04-25 04:08:00,31.2,31.2,29.86,NE,51,0.0,0.0,100,0.02,,BKN048,0.08,VWS V12.07,2013-04-25 09:08:00,
2013-04-25 04:09:00,31.2,31.2,29.86,NE,51,0.0,0.0,100,0.02,,BKN048,0.08,VWS V12.07,2013-04-25 09:09:00,
2013-04-25 04:10:00,31.2,31.2,29.86,NE,51,0.0,0.0,100,0.02,,BKN048,0.08,VWS V12.07,2013-04-25 09:10:00,
2013-04-25 04:11:00,31.2,31.2,29.86,NE,51,0.0,0.0,100,0.02,,BKN048,0.08,VWS V12.07,2013-04-25 09:11:00,
2013-04-25 04:12:00,31.2,31.2,29.86,NE,51,0.0,0.0,100,0.02,,BKN048,0.08,VWS V12.07,2013-04-25 09:12:00,
2013-04-25 04:13:00,31.2,31.2,29.87,NE,51,0.0,0.0,100,0.02,,BKN048,0.08,VWS V12.07,2013-04-25 09:13:00,
2013-04-25 04:14:00,31.2,31.2,29.87,NE,51,0.0,0.0,100,0.02,,BKN048,0.08,VWS V12.07,2013-04-25 09:14:00,
2013-04-25 04:15:00,31.0,31.0,29.87,NE,51,0.0,0.0,100,0.02,,BKN048,0.08,VWS V12.07,2013-04-25 09:15:00,
2013-04-25 04:16:00,31.0,31.0,29.87,NE,51,0.0,0.0,100,0.02,,BKN048,0.08,VWS V12.07,2013-04-25 09:16:00,
2013-04-25 04:17:00,31.0,31.0,29.87,NE,51,0.0,0.0,100,0.02,,BKN048,0.08,VWS V12.07,2013-04-25 09:17:00,
2013-04-25 04:19:00,31.0,31.0,29.87,NE,51,0.0,0.0,100,0.02,,BKN048,0.08,VWS V12.07,2013-04-25 09:19:00,
2013-04-25 04:20:00,31.0,31.0,29.87,NE,51,0.0,0.0,100,0.02,,BKN048,0.08,VWS V12.07,2013-04-25 09:20:00,
2013-04-25 04:22:00,31.0,31.0,29.87,NE,51,0.0,0.0,100,0.02,,BKN048,0.08,VWS V12.07,2013-04-25 09:22:00,
2013-04-25 04:24:00,31.0,31.0,29.87,NE,51,0.0,0.0,100,0.02,,BKN048,0.08,VWS V12.07,2013-04-25 09:24:00,
2013-04-25 04:26:00,30.9,30.9,29.87,NE,51,0.0,0.0,100,0.02,,BKN048,0.08,VWS V12.07,2013-04-25 09:26:00,
2013-04-25 04:28:00,30.9,30.9,29.87,NE,51,0.0,1.0,100,0.02,,BKN048,0.08,VWS V12.07,2013-04-25 09:28:00,
2013-04-25 04:29:00,30.9,30.9,29.87,NE,51,0.0,1.0,100,0.02,,BKN048,0.08,VWS V12.07,2013-04-25 09:29:00,
2013-04-25 04:32:00,30.9,30.9,29.87,NE,51,0.0,1.0,100,0.02,,BKN048,0.08,VWS V12.07,2013-04-25 09:32:00,
2013-04-25 04:34:00,30.7,30.7,29.87,NE,51,0.0,1.0,100,0.02,,BKN032,0.08,VWS V12.07,2013-04-25 09:34:00,
2013-04-25 04:37:00,30.7,30.7,29.87,NE,51,0.0,1.0,100,0.01,,BKN032,0.08,VWS V12.07,2013-04-25 09:37:00,
2013-04-25 04:39:00,30.7,30.7,29.87,NE,51,0.0,1.0,100,0.01,,BKN032,0.08,VWS V12.07,2013-04-25 09:39:00,
2013-04-25 04:40:00,30.7,30.7,29.87,NE,51,0.0,1.0,100,0.01,,BKN032,0.08,VWS V12.07,2013-04-25 09:40:00,
2013-04-25 04:43:00,30.7,30.7,29.87,NE,51,0.0,1.0,100,0.01,,BKN032,0.08,VWS V12.07,2013-04-25 09:43:00,
2013-04-25 04:44:00,30.7,30.7,29.88,NE,51,0.0,1.0,100,0.01,,BKN032,0.08,VWS V12.07,2013-04-25 09:44:00,
2013-04-25 04:45:00,30.7,30.7,29.88,NE,51,0.0,1.0,100,0.01,,BKN032,0.08,VWS V12.07,2013-04-25 09:45:00,
2013-04-25 04:48:00,30.7,30.7,29.88,NE,51,0.0,0.0,100,0.00,,BKN030,0.08,VWS V12.07,2013-04-25 09:48:00,
2013-04-25 04:49:00,30.7,30.7,29.88,NE,51,0.0,0.0,100,0.00,,BKN030,0.08,VWS V12.07,2013-04-25 09:49:00,
2013-04-25 04:50:00,30.7,30.7,29.88,NE,51,0.0,0.0,100,0.00,,BKN030,0.08,VWS V12.07,2013-04-25 09:50:00,
2013-04-25 04:54:00,30.7,30.7,29.88,NE,51,0.0,0.0,100,0.00,,BKN030,0.08,VWS V12.07,2013-04-25 09:54:00,
2013-04-25 04:55:00,30.7,30.7,29.88,NE,51,0.0,0.0,100,0.00,,BKN030,0.08,VWS V12.07,2013-04-25 09:55:00,
2013-04-25 04:59:00,30.7,30.5,29.88,West,278,0.0,2.0,99,0.00,,BKN030,0.08,VWS V12.07,2013-04-25 09:59:00,
2013-04-25 05:00:00,30.7,30.5,29.88,West,278,0.0,2.0,99,0.00,,BKN030,0.08,VWS V12.07,2013-04-25 10:00:00,
2013-04-25 05:01:00,30.7,30.5,29.88,West,278,0.0,2.0,99,0.00,,BKN030,0.08,VWS V12.07,2013-04-25 10:01:00,
2013-04-25 05:04:00,30.7,30.5,29.88,West,278,0.0,2.0,99,0.00,,BKN030,0.08,VWS V12.07,2013-04-25 10:04:00,
2013-04-25 05:05:00,30.6,30.4,29.88,West,278,0.0,2.0,99,0.00,,BKN030,0.08,VWS V12.07,2013-04-25 10:05:00,
2013-04-25 05:06:00,30.6,30.4,29.88,West,278,0.0,2.0,99,0.00,,BKN030,0.08,VWS V12.07,2013-04-25 10:06:00,
2013-04-25 05:09:00,30.6,30.4,29.88,West,278,0.0,0.0,99,0.00,,CLR,0.08,VWS V12.07,2013-04-25 10:09:00,
2013-04-25 05:10:00,30.6,30.4,29.88,West,278,0.0,0.0,99,0.00,,CLR,0.08,VWS V12.07,2013-04-25 10:10:00,
2013-04-25 05:11:00,30.6,30.4,29.88,West,278,0.0,0.0,99,0.00,,CLR,0.08,VWS V12.07,2013-04-25 10:11:00,
2013-04-25 05:12:00,30.4,30.1,29.88,West,278,0.0,0.0,99,0.00,,CLR,0.08,VWS V12.07,2013-04-25 10:12:00,
2013-04-25 05:15:00,30.4,30.1,29.89,West,278,0.0,0.0,99,0.00,,CLR,0.08,VWS V12.07,2013-04-25 10:15:00,
2013-04-25 05:16:00,30.4,30.1,29.89,West,278,0.0,0.0,99,0.00,,CLR,0.08,VWS V12.07,2013-04-25 10:16:00,
2013-04-25 05:17:00,30.4,30.1,29.89,West,278,0.0,0.0,99,0.00,,CLR,0.08,VWS V12.07,2013-04-25 10:17:00,
2013-04-25 05:21:00,30.4,30.1,29.89,West,278,0.0,0.0,99,0.00,,OVC014,0.08,VWS V12.07,2013-04-25 10:21:00,
2013-04-25 05:22:00,30.4,30.1,29.89,West,278,0.0,0.0,99,0.00,,OVC014,0.08,VWS V12.07,2013-04-25 10:22:00,
2013-04-25 05:26:00,30.3,30.0,29.89,West,278,0.0,0.0,99,0.00,,BKN030,0.08,VWS V12.07,2013-04-25 10:26:00,
2013-04-25 05:27:00,30.3,30.0,29.89,West,278,0.0,2.0,99,0.00,,BKN030,0.08,VWS V12.07,2013-04-25 10:27:00,
2013-04-25 05:28:00,30.3,30.0,29.89,West,278,0.0,2.0,99,0.00,,BKN030,0.08,VWS V12.07,2013-04-25 10:28:00,
2013-04-25 05:31:00,30.4,30.1,29.90,West,278,0.0,2.0,99,0.00,,BKN030,0.08,VWS V12.07,2013-04-25 10:31:00,
2013-04-25 05:32:00,30.4,30.1,29.90,West,278,0.0,2.0,99,0.00,,BKN030,0.08,VWS V12.07,2013-04-25 10:32:00,
2013-04-25 05:34:00,30.4,30.1,29.90,West,278,0.0,2.0,99,0.00,,BKN030,0.08,VWS V12.07,2013-04-25 10:34:00,
2013-04-25 05:36:00,30.4,30.1,29.90,West,278,0.0,2.0,99,0.00,,BKN026,0.08,VWS V12.07,2013-04-25 10:36:00,
2013-04-25 05:37:00,30.3,30.0,29.90,West,278,0.0,2.0,99,0.00,,BKN026,0.08,VWS V12.07,2013-04-25 10:37:00,
2013-04-25 05:39:00,30.3,30.0,29.90,West,278,0.0,0.0,99,0.00,,BKN026,0.08,VWS V12.07,2013-04-25 10:39:00,
2013-04-25 05:41:00,30.3,30.0,29.90,West,278,0.0,0.0,99,0.00,,BKN026,0.08,VWS V12.07,2013-04-25 10:41:00,
2013-04-25 05:42:00,30.3,30.0,29.90,West,278,0.0,0.0,99,0.00,,BKN026,0.08,VWS V12.07,2013-04-25 10:42:00,
2013-04-25 05:43:00,30.3,30.0,29.90,West,278,0.0,0.0,99,0.00,,BKN026,0.08,VWS V12.07,2013-04-25 10:43:00,
2013-04-25 05:44:00,30.3,30.0,29.90,West,278,0.0,0.0,99,0.00,,BKN026,0.08,VWS V12.07,2013-04-25 10:44:00,
2013-04-25 05:46:00,30.3,30.0,29.90,West,278,0.0,0.0,99,0.00,,BKN026,0.08,VWS V12.07,2013-04-25 10:46:00,
2013-04-25 05:47:00,30.3,30.0,29.90,West,278,0.0,0.0,99,0.00,,BKN026,0.08,VWS V12.07,2013-04-25 10:47:00,
2013-04-25 05:48:00,30.3,30.0,29.90,West,278,0.0,0.0,99,0.00,,BKN026,0.08,VWS V12.07,2013-04-25 10:48:00,
2013-04-25 05:49:00,30.3,30.0,29.90,West,278,0.0,0.0,99,0.00,,OVC013,0.08,VWS V12.07,2013-04-25 10:49:00,
2013-04-25 05:52:00,30.1,29.9,29.90,West,278,0.0,0.0,99,0.00,,OVC013,0.08,VWS V12.07,2013-04-25 10:52:00,
2013-04-25 05:53:00,30.1,29.9,29.90,West,278,0.0,0.0,99,0.00,,OVC013,0.08,VWS V12.07,2013-04-25 10:53:00,
2013-04-25 05:54:00,30.1,29.9,29.90,West,278,0.0,0.0,99,0.00,,OVC013,0.08,VWS V12.07,2013-04-25 10:54:00,
2013-04-25 05:56:00,30.1,29.9,29.90,West,278,0.0,0.0,99,0.00,,OVC013,0.08,VWS V12.07,2013-04-25 10:56:00,
2013-04-25 05:58:00,30.0,29.8,29.90,West,278,0.0,0.0,99,0.00,,OVC013,0.08,VWS V12.07,2013-04-25 10:58:00,
2013-04-25 05:59:00,30.0,29.8,29.92,West,278,0.0,0.0,99,0.00,,OVC013,0.08,VWS V12.07,2013-04-25 10:59:00,
2013-04-25 06:01:00,30.0,29.8,29.92,West,278,0.0,0.0,99,0.00,,OVC013,0.08,VWS V12.07,2013-04-25 11:01:00,
2013-04-25 06:03:00,29.8,29.5,29.92,West,278,0.0,0.0,99,0.00,,OVC013,0.08,VWS V12.07,2013-04-25 11:03:00,
2013-04-25 06:04:00,29.8,29.5,29.92,West,278,0.0,0.0,99,0.00,,OVC013,0.08,VWS V12.07,2013-04-25 11:04:00,
2013-04-25 06:06:00,29.8,29.5,29.92,West,278,0.0,0.0,99,0.00,,OVC013,0.08,VWS V12.07,2013-04-25 11:06:00,
2013-04-25 06:08:00,29.8,29.5,29.92,West,278,0.0,0.0,99,0.00,,OVC013,0.08,VWS V12.07,2013-04-25 11:08:00,
2013-04-25 06:09:00,29.8,29.5,29.92,West,278,0.0,0.0,99,0.00,,OVC013,0.08,VWS V12.07,2013-04-25 11:09:00,
2013-04-25 06:11:00,29.8,29.5,29.92,West,278,0.0,0.0,99,0.00,,OVC013,0.08,VWS V12.07,2013-04-25 11:11:00,
2013-04-25 06:13:00,29.8,29.5,29.92,West,278,0.0,0.0,99,0.00,,OVC013,0.08,VWS V12.07,2013-04-25 11:13:00,
2013-04-25 06:14:00,29.8,29.5,29.92,West,278,0.0,0.0,99,0.00,,OVC013,0.08,VWS V12.07,2013-04-25 11:14:00,
2013-04-25 06:15:00,29.8,29.5,29.92,West,278,0.0,0.0,99,0.00,,OVC013,0.08,VWS V12.07,2013-04-25 11:15:00,
2013-04-25 06:17:00,29.8,29.5,29.92,West,278,0.0,0.0,99,0.00,,OVC013,0.08,VWS V12.07,2013-04-25 11:17:00,
2013-04-25 06:19:00,29.8,29.5,29.92,West,278,0.0,0.0,99,0.00,,OVC013,0.08,VWS V12.07,2013-04-25 11:19:00,
2013-04-25 06:20:00,29.8,29.5,29.92,West,278,0.0,0.0,99,0.00,,OVC013,0.08,VWS V12.07,2013-04-25 11:20:00,
2013-04-25 06:22:00,29.8,29.5,29.92,West,278,0.0,0.0,99,0.00,,OVC013,0.08,VWS V12.07,2013-04-25 11:22:00,
2013-04-25 06:24:00,29.8,29.5,29.92,West,278,0.0,0.0,99,0.00,,OVC013,0.08,VWS V12.07,2013-04-25 11:24:00,
2013-04-25 06:25:00,29.8,29.5,29.92,West,278,0.0,0.0,99,0.00,,OVC013,0.08,VWS V12.07,2013-04-25 11:25:00,
2013-04-25 06:28:00,29.8,29.5,29.92,West,278,0.0,0.0,99,0.00,,OVC013,0.08,VWS V12.07,2013-04-25 11:28:00,
2013-04-25 06:29:00,30.0,29.8,29.92,West,278,0.0,0.0,99,0.00,,OVC013,0.08,VWS V12.07,2013-04-25 11:29:00,
2013-04-25 06:30:00,30.0,29.8,29.92,West,278,0.0,0.0,99,0.00,,OVC013,0.08,VWS V12.07,2013-04-25 11:30:00,
2013-04-25 06:33:00,30.0,29.8,29.92,West,278,0.0,0.0,99,0.00,,OVC013,0.08,VWS V12.07,2013-04-25 11:33:00,
2013-04-25 06:34:00,30.0,29.8,29.92,West,278,0.0,0.0,99,0.00,,OVC011,0.08,VWS V12.07,2013-04-25 11:34:00,
2013-04-25 06:35:00,30.0,29.8,29.92,West,278,0.0,0.0,99,0.00,,OVC011,0.08,VWS V12.07,2013-04-25 11:35:00,
2013-04-25 06:36:00,30.0,29.8,29.92,West,278,0.0,0.0,99,0.00,,OVC011,0.08,VWS V12.07,2013-04-25 11:36:00,
2013-04-25 06:39:00,30.0,29.8,29.92,West,278,0.0,0.0,99,0.00,,OVC011,0.08,VWS V12.07,2013-04-25 11:39:00,
2013-04-25 06:40:00,30.1,29.9,29.92,West,278,0.0,0.0,99,0.00,,OVC011,0.08,VWS V12.07,2013-04-25 11:40:00,
2013-04-25 06:41:00,30.1,29.9,29.92,West,278,0.0,0.0,99,0.00,,OVC011,0.08,VWS V12.07,2013-04-25 11:41:00,
2013-04-25 06:44:00,30.1,29.9,29.93,West,278,0.0,1.0,99,0.00,,OVC011,0.08,VWS V12.07,2013-04-25 11:44:00,
2013-04-25 06:46:00,30.1,29.9,29.93,West,278,0.0,1.0,99,0.00,,OVC011,0.08,VWS V12.07,2013-04-25 11:46:00,
2013-04-25 06:47:00,30.1,29.9,29.93,West,278,0.0,1.0,99,0.00,,OVC011,0.08,VWS V12.07,2013-04-25 11:47:00,
2013-04-25 06:49:00,30.1,29.9,29.93,SSW,193,0.0,1.0,99,0.00,,OVC009,0.08,VWS V12.07,2013-04-25 11:49:00,
2013-04-25 06:50:00,30.1,29.9,29.93,SSW,193,0.0,1.0,99,0.00,,OVC009,0.08,VWS V12.07,2013-04-25 11:50:00,
2013-04-25 06:51:00,30.1,29.9,29.93,SSW,193,0.0,1.0,99,0.00,,OVC009,0.08,VWS V12.07,2013-04-25 11:51:00,
2013-04-25 06:52:00,30.1,29.9,29.93,SSW,193,0.0,1.0,99,0.00,,OVC009,0.08,VWS V12.07,2013-04-25 11:52:00,
2013-04-25 06:54:00,30.1,29.9,29.93,SSW,193,0.0,1.0,99,0.00,,OVC009,0.08,VWS V12.07,2013-04-25 11:54:00,
2013-04-25 06:55:00,30.1,29.9,29.93,SSW,193,0.0,1.0,99,0.00,,OVC009,0.08,VWS V12.07,2013-04-25 11:55:00,
2013-04-25 06:56:00,30.1,29.9,29.93,SSW,193,0.0,1.0,99,0.00,,OVC009,0.08,VWS V12.07,2013-04-25 11:56:00,
2013-04-25 06:58:00,30.1,29.9,29.93,SSW,193,0.0,1.0,99,0.00,,OVC009,0.08,VWS V12.07,2013-04-25 11:58:00,
2013-04-25 07:00:00,30.3,30.0,29.94,NE,55,0.0,2.0,99,0.00,,OVC009,0.08,VWS V12.07,2013-04-25 12:00:00,
2013-04-25 07:01:00,30.3,30.0,29.94,NE,55,0.0,2.0,99,0.00,,OVC009,0.08,VWS V12.07,2013-04-25 12:01:00,
2013-04-25 07:03:00,30.3,30.0,29.94,NE,55,0.0,2.0,99,0.00,,OVC009,0.08,VWS V12.07,2013-04-25 12:03:00,
2013-04-25 07:05:00,30.1,29.9,29.94,NE,55,1.0,2.0,99,0.00,,OVC009,0.08,VWS V12.07,2013-04-25 12:05:00,
2013-04-25 07:06:00,30.1,29.9,29.94,NE,55,0.0,2.0,99,0.00,,OVC009,0.08,VWS V12.07,2013-04-25 12:06:00,
2013-04-25 07:09:00,30.3,30.0,29.94,NE,55,0.0,1.0,99,0.00,,OVC009,0.08,VWS V12.07,2013-04-25 12:09:00,
2013-04-25 07:10:00,30.3,30.0,29.94,NE,55,0.0,1.0,99,0.00,,OVC009,0.08,VWS V12.07,2013-04-25 12:10:00,
2013-04-25 07:11:00,30.3,30.0,29.94,NE,55,0.0,1.0,99,0.00,,OVC009,0.08,VWS V12.07,2013-04-25 12:11:00,
2013-04-25 07:12:00,30.3,30.0,29.94,NE,55,0.0,1.0,99,0.00,,OVC009,0.08,VWS V12.07,2013-04-25 12:12:00,
2013-04-25 07:15:00,30.4,30.1,29.95,NE,55,0.0,1.0,99,0.00,,OVC009,0.08,VWS V12.07,2013-04-25 12:15:00,
2013-04-25 07:16:00,30.4,30.1,29.95,NE,55,0.0,1.0,99,0.00,,OVC009,0.08,VWS V12.07,2013-04-25 12:16:00,
2013-04-25 07:17:00,30.4,30.1,29.95,NE,55,0.0,1.0,99,0.00,,OVC009,0.08,VWS V12.07,2013-04-25 12:17:00,
2013-04-25 07:20:00,30.6,30.4,29.95,NNW,347,0.0,1.0,99,0.00,,OVC009,0.08,VWS V12.07,2013-04-25 12:20:00,
2013-04-25 07:21:00,30.6,30.4,29.95,NNW,347,0.0,1.0,99,0.00,,OVC009,0.08,VWS V12.07,2013-04-25 12:21:00,
2013-04-25 07:22:00,30.6,30.4,29.95,NNW,347,0.0,1.0,99,0.00,,OVC009,0.08,VWS V12.07,2013-04-25 12:22:00,
2013-04-25 07:23:00,30.7,30.5,29.95,NNW,347,0.0,1.0,99,0.00,,OVC009,0.08,VWS V12.07,2013-04-25 12:23:00,
2013-04-25 07:25:00,30.7,30.5,29.95,NNW,347,0.0,1.0,99,0.00,,OVC009,0.08,VWS V12.07,2013-04-25 12:25:00,
2013-04-25 07:26:00,30.7,30.5,29.95,NNW,347,0.0,1.0,99,0.00,,OVC009,0.08,VWS V12.07,2013-04-25 12:26:00,
2013-04-25 07:27:00,30.9,30.6,29.95,NNW,347,0.0,1.0,99,0.00,,OVC009,0.08,VWS V12.07,2013-04-25 12:27:00,
2013-04-25 07:29:00,30.9,30.6,29.96,NNW,347,0.0,0.0,99,0.00,,OVC009,0.08,VWS V12.07,2013-04-25 12:29:00,
2013-04-25 07:30:00,31.0,30.8,29.96,NNW,347,0.0,0.0,99,0.00,,OVC009,0.08,VWS V12.07,2013-04-25 12:30:00,
2013-04-25 07:31:00,31.0,30.8,29.96,NNW,347,0.0,0.0,99,0.00,,OVC009,0.08,VWS V12.07,2013-04-25 12:31:00,
2013-04-25 07:32:00,31.2,30.7,29.96,NNW,347,0.0,0.0,98,0.00,,OVC009,0.08,VWS V12.07,2013-04-25 12:32:00,
2013-04-25 07:33:00,31.2,30.7,29.96,NNW,347,0.0,0.0,98,0.00,,OVC009,0.08,VWS V12.07,2013-04-25 12:33:00,
2013-04-25 07:34:00,31.2,30.7,29.96,NNW,347,0.0,0.0,98,0.00,,OVC009,0.08,VWS V12.07,2013-04-25 12:34:00,
2013-04-25 07:35:00,31.3,30.8,29.96,NNW,347,0.0,0.0,98,0.00,,OVC007,0.08,VWS V12.07,2013-04-25 12:35:00,
2013-04-25 07:36:00,31.3,30.8,29.96,NNW,347,0.0,0.0,98,0.00,,OVC007,0.08,VWS V12.07,2013-04-25 12:36:00,
2013-04-25 07:37:00,31.3,30.8,29.96,NNW,347,0.0,0.0,98,0.00,,OVC007,0.08,VWS V12.07,2013-04-25 12:37:00,
2013-04-25 07:38:00,31.3,30.8,29.96,NNW,347,0.0,0.0,98,0.00,,OVC007,0.08,VWS V12.07,2013-04-25 12:38:00,
2013-04-25 07:39:00,31.5,31.0,29.96,NNW,347,0.0,0.0,98,0.00,,OVC007,0.08,VWS V12.07,2013-04-25 12:39:00,
2013-04-25 07:40:00,31.5,31.0,29.96,NNW,347,0.0,0.0,98,0.00,,OVC007,0.08,VWS V12.07,2013-04-25 12:40:00,
2013-04-25 07:42:00,31.5,31.0,29.96,NNW,347,1.0,1.0,98,0.00,,OVC007,0.08,VWS V12.07,2013-04-25 12:42:00,
2013-04-25 07:44:00,31.6,31.1,29.96,NNW,347,0.0,1.0,98,0.00,,OVC007,0.08,VWS V12.07,2013-04-25 12:44:00,
2013-04-25 07:45:00,31.8,31.0,29.96,NNW,347,0.0,1.0,97,0.00,,OVC007,0.08,VWS V12.07,2013-04-25 12:45:00,
2013-04-25 07:47:00,31.8,31.0,29.96,ENE,72,0.0,2.0,97,0.00,,OVC007,0.08,VWS V12.07,2013-04-25 12:47:00,
2013-04-25 07:49:00,31.8,31.0,29.96,ENE,72,0.0,2.0,97,0.00,,BKN007,0.08,VWS V12.07,2013-04-25 12:49:00,
2013-04-25 07:51:00,31.9,30.9,29.96,ENE,72,0.0,2.0,96,0.00,,BKN007,0.08,VWS V12.07,2013-04-25 12:51:00,
2013-04-25 07:52:00,32.1,31.1,29.96,ENE,72,0.0,2.0,96,0.00,,BKN007,0.08,VWS V12.07,2013-04-25 12:52:00,
2013-04-25 07:54:00,32.1,31.1,29.96,ENE,72,0.0,2.0,96,0.00,,BKN007,0.08,VWS V12.07,2013-04-25 12:54:00,
2013-04-25 07:56:00,32.2,31.2,29.96,SSW,198,0.0,2.0,96,0.00,,BKN007,0.08,VWS V12.07,2013-04-25 12:56:00,
2013-04-25 07:57:00,32.2,31.2,29.96,SSW,198,0.0,2.0,96,0.00,,BKN007,0.08,VWS V12.07,2013-04-25 12:57:00,
2013-04-25 07:59:00,32.2,31.2,29.97,SSW,199,1.0,2.0,96,0.00,,BKN007,0.08,VWS V12.07,2013-04-25 12:59:00,
2013-04-25 08:01:00,32.4,31.1,29.97,SSW,198,0.0,2.0,95,0.00,,BKN007,0.08,VWS V12.07,2013-04-25 13:01:00,
2013-04-25 08:02:00,32.5,31.2,29.97,SSW,199,0.0,2.0,95,0.00,,BKN007,0.08,VWS V12.07,2013-04-25 13:02:00,
2013-04-25 08:04:00,32.7,31.4,29.97,SSW,199,0.0,2.0,95,0.00,,BKN007,0.08,VWS V12.07,2013-04-25 13:04:00,
2013-04-25 08:05:00,32.7,31.4,29.97,SSW,199,0.0,2.0,95,0.00,,BKN007,0.08,VWS V12.07,2013-04-25 13:05:00,
2013-04-25 08:06:00,32.8,31.5,29.97,WSW,257,0.0,2.0,95,0.00,,BKN007,0.08,VWS V12.07,2013-04-25 13:06:00,
2013-04-25 08:07:00,32.9,31.6,29.97,WSW,257,0.0,2.0,95,0.00,,BKN007,0.08,VWS V12.07,2013-04-25 13:07:00,
2013-04-25 08:10:00,33.4,31.9,29.97,WSW,257,0.0,1.0,94,0.00,,BKN007,0.08,VWS V12.07,2013-04-25 13:10:00,
2013-04-25 08:11:00,33.5,32.0,29.97,WSW,257,0.0,1.0,94,0.00,,BKN007,0.08,VWS V12.07,2013-04-25 13:11:00,
2013-04-25 08:13:00,33.5,31.7,29.97,WSW,257,0.0,2.0,93,0.00,,BKN007,0.08,VWS V12.07,2013-04-25 13:13:00,
2013-04-25 08:15:00,33.5,31.4,29.98,SW,214,0.0,3.0,92,0.00,,BKN007,0.08,VWS V12.07,2013-04-25 13:15:00,
2013-04-25 08:16:00,33.5,31.4,29.98,SW,227,2.0,3.0,92,0.00,,BKN007,0.08,VWS V12.07,2013-04-25 13:16:00,
2013-04-25 08:17:00,33.7,31.4,29.98,SW,227,0.0,3.0,91,0.00,,BKN007,0.08,VWS V12.07,2013-04-25 13:17:00,
2013-04-25 08:18:00,33.7,31.4,29.98,SW,226,3.0,4.0,91,0.00,,BKN007,0.08,VWS V12.07,2013-04-25 13:18:00,
2013-04-25 08:20:00,33.5,30.6,29.98,WSW,252,0.0,4.0,89,0.00,,BKN007,0.08,VWS V12.07,2013-04-25 13:20:00,
2013-04-25 08:21:00,33.5,30.6,29.98,WSW,252,0.0,4.0,89,0.00,,BKN007,0.08,VWS V12.07,2013-04-25 13:21:00,
2013-04-25 08:22:00,33.7,31.1,29.98,WSW,252,1.0,0.0,90,0.00,,BKN007,0.08,VWS V12.07,2013-04-25 13:22:00,
2013-04-25 08:23:00,33.7,31.1,29.98,WSW,252,1.0,4.0,90,0.00,,BKN007,0.08,VWS V12.07,2013-04-25 13:23:00,
2013-04-25 08:26:00,33.8,30.9,29.98,WSW,252,0.0,4.0,89,0.00,,BKN007,0.08,VWS V12.07,2013-04-25 13:26:00,
2013-04-25 08:27:00,33.8,31.2,29.98,WSW,252,0.0,4.0,90,0.00,,BKN007,0.08,VWS V12.07,2013-04-25 13:27:00,
2013-04-25 08:28:00,34.0,31.1,29.98,WSW,252,0.0,2.0,89,0.00,,BKN007,0.08,VWS V12.07,2013-04-25 13:28:00,
2013-04-25 08:31:00,34.3,31.7,29.99,WSW,252,2.0,2.0,90,0.00,,BKN007,0.08,VWS V12.07,2013-04-25 13:31:00,
2013-04-25 08:32:00,34.4,31.5,29.99,SW,228,0.0,2.0,89,0.00,,BKN007,0.08,VWS V12.07,2013-04-25 13:32:00,
2013-04-25 08:33:00,34.4,31.5,29.99,SW,228,0.0,2.0,89,0.00,,BKN007,0.08,VWS V12.07,2013-04-25 13:33:00,
2013-04-25 08:34:00,34.6,31.7,29.99,SW,228,0.0,2.0,89,0.00,,SCT007,0.08,VWS V12.07,2013-04-25 13:34:00,
2013-04-25 08:36:00,34.6,31.1,29.99,SW,228,1.0,2.0,87,0.00,,SCT007,0.08,VWS V12.07,2013-04-25 13:36:00,
2013-04-25 08:37:00,34.7,31.5,29.99,SW,228,1.0,2.0,88,0.00,,SCT007,0.08,VWS V12.07,2013-04-25 13:37:00,
2013-04-25 08:39:00,34.6,31.1,29.99,SW,228,0.0,2.0,87,0.00,,SCT007,0.08,VWS V12.07,2013-04-25 13:39:00,
2013-04-25 08:41:00,34.7,31.5,29.99,SW,228,0.0,2.0,88,0.00,,SCT007,0.08,VWS V12.07,2013-04-25 13:41:00,
2013-04-25 08:43:00,34.7,31.2,29.99,SW,228,0.0,2.0,87,0.00,,SCT007,0.08,VWS V12.07,2013-04-25 13:43:00,
2013-04-25 08:44:00,34.9,31.4,29.98,SW,228,0.0,2.0,87,0.00,,SCT007,0.08,VWS V12.07,2013-04-25 13:44:00,
2013-04-25 08:45:00,34.9,31.4,29.98,SW,228,0.0,0.0,87,0.00,,SCT007,0.08,VWS V12.07,2013-04-25 13:45:00,
2013-04-25 08:47:00,34.9,31.1,29.98,SW,228,0.0,1.0,86,0.00,,SCT007,0.08,VWS V12.07,2013-04-25 13:47:00,
2013-04-25 08:48:00,35.0,31.2,29.98,SW,228,0.0,1.0,86,0.00,,SCT009,0.08,VWS V12.07,2013-04-25 13:48:00,
2013-04-25 08:49:00,35.0,31.2,29.98,SW,228,1.0,3.0,86,0.00,,SCT009,0.08,VWS V12.07,2013-04-25 13:49:00,
2013-04-25 08:50:00,35.0,31.0,29.98,SW,228,2.0,3.0,85,0.00,,SCT009,0.08,VWS V12.07,2013-04-25 13:50:00,
2013-04-25 08:52:00,35.3,31.2,29.98,SW,228,0.0,3.0,85,0.00,,SCT009,0.08,VWS V12.07,2013-04-25 13:52:00,
2013-04-25 08:53:00,35.3,31.2,29.98,SW,228,1.0,3.0,85,0.00,,SCT009,0.08,VWS V12.07,2013-04-25 13:53:00,
2013-04-25 08:54:00,35.3,31.2,29.98,SW,228,0.0,3.0,85,0.00,,SCT009,0.08,VWS V12.07,2013-04-25 13:54:00,
2013-04-25 08:55:00,35.3,31.0,29.98,SW,228,0.0,3.0,84,0.00,,SCT009,0.08,VWS V12.07,2013-04-25 13:55:00,
2013-04-25 08:57:00,35.6,31.5,29.98,SW,228,0.0,3.0,85,0.00,,SCT009,0.08,VWS V12.07,2013-04-25 13:57:00,
2013-04-25 08:59:00,35.9,31.8,29.99,SW,228,0.0,1.0,85,0.00,,SCT009,0.08,VWS V12.07,2013-04-25 13:59:00,
2013-04-25 09:00:00,36.0,31.9,29.99,NW,319,0.0,3.0,85,0.00,,SCT009,0.08,VWS V12.07,2013-04-25 14:00:00,
2013-04-25 09:01:00,36.0,31.4,29.99,NW,319,0.0,3.0,83,0.00,,SCT009,0.08,VWS V12.07,2013-04-25 14:01:00,
2013-04-25 09:03:00,36.3,31.3,29.99,NW,319,0.0,3.0,82,0.00,,SCT009,0.08,VWS V12.07,2013-04-25 14:03:00,
2013-04-25 09:04:00,36.5,31.8,29.99,NNW,333,0.0,3.0,83,0.00,,SCT009,0.08,VWS V12.07,2013-04-25 14:04:00,
2013-04-25 09:05:00,36.6,31.3,29.99,WNW,290,3.0,3.0,81,0.00,,SCT009,0.08,VWS V12.07,2013-04-25 14:05:00,
2013-04-25 09:07:00,36.8,31.5,29.99,South,174,0.0,4.0,81,0.00,,SCT009,0.08,VWS V12.07,2013-04-25 14:07:00,
2013-04-25 09:08:00,36.6,31.6,29.99,NNW,333,0.0,3.0,82,0.00,,SCT009,0.08,VWS V12.07,2013-04-25 14:08:00,
2013-04-25 09:09:00,37.0,31.4,29.99,SW,224,2.0,4.0,80,0.00,,SCT009,0.08,VWS V12.07,2013-04-25 14:09:00,
2013-04-25 09:10:00,36.9,31.3,29.99,SW,215,0.0,4.0,80,0.00,,SCT009,0.08,VWS V12.07,2013-04-25 14:10:00,
2013-04-25 09:12:00,36.9,31.0,29.99,SW,215,0.0,4.0,79,0.00,,SCT009,0.08,VWS V12.07,2013-04-25 14:12:00,
2013-04-25 09:13:00,36.9,31.0,29.99,SW,215,0.0,4.0,79,0.00,,SCT009,0.08,VWS V12.07,2013-04-25 14:13:00,
2013-04-25 09:14:00,36.9,31.3,30.00,SW,215,0.0,4.0,80,0.00,,SCT009,0.08,VWS V12.07,2013-04-25 14:14:00,
2013-04-25 09:15:00,37.0,31.4,30.00,NW,314,2.0,4.0,80,0.00,,SCT009,0.08,VWS V12.07,2013-04-25 14:15:00,
2013-04-25 09:16:00,37.0,31.1,30.00,NW,314,0.0,4.0,79,0.00,,SCT009,0.08,VWS V12.07,2013-04-25 14:16:00,
2013-04-25 09:17:00,37.0,31.4,30.00,SW,223,2.0,4.0,80,0.00,,SCT009,0.08,VWS V12.07,2013-04-25 14:17:00,
2013-04-25 09:18:00,37.0,31.4,30.00,SW,223,0.0,4.0,80,0.00,,SCT009,0.08,VWS V12.07,2013-04-25 14:18:00,
2013-04-25 09:19:00,37.2,31.6,30.00,SW,223,0.0,4.0,80,0.00,,SCT009,0.08,VWS V12.07,2013-04-25 14:19:00,
2013-04-25 09:20:00,37.2,31.6,30.00,SW,223,0.0,4.0,80,0.00,,SCT009,0.08,VWS V12.07,2013-04-25 14:20:00,
2013-04-25 09:21:00,37.3,31.7,30.00,SW,223,3.0,4.0,80,0.00,,SCT009,0.08,VWS V12.07,2013-04-25 14:21:00,
2013-04-25 09:23:00,37.3,31.1,30.00,SW,229,0.0,4.0,78,0.00,,SCT009,0.08,VWS V12.07,2013-04-25 14:23:00,
2013-04-25 09:25:00,37.5,31.3,30.00,WSW,248,1.0,4.0,78,0.00,,SCT009,0.08,VWS V12.07,2013-04-25 14:25:00,
2013-04-25 09:26:00,37.5,31.3,30.00,SW,224,2.0,4.0,78,0.00,,SCT009,0.08,VWS V12.07,2013-04-25 14:26:00,
2013-04-25 09:28:00,37.5,30.6,30.00,SW,224,0.0,4.0,76,0.00,,SCT009,0.08,VWS V12.07,2013-04-25 14:28:00,
2013-04-25 09:30:00,37.6,31.1,30.00,SW,228,2.0,4.0,77,0.00,,SCT009,0.08,VWS V12.07,2013-04-25 14:30:00,
2013-04-25 09:31:00,37.6,31.1,30.00,WSW,238,1.0,4.0,77,0.00,,SCT009,0.08,VWS V12.07,2013-04-25 14:31:00,
2013-04-25 09:33:00,37.5,30.0,30.00,SW,236,1.0,4.0,74,0.00,,SCT009,0.08,VWS V12.07,2013-04-25 14:33:00,
2013-04-25 09:35:00,37.5,30.0,30.00,West,268,0.0,4.0,74,0.00,,CLR,0.08,VWS V12.07,2013-04-25 14:35:00,
2013-04-25 09:36:00,37.3,29.8,30.00,West,268,1.0,4.0,74,0.00,,CLR,0.08,VWS V12.07,2013-04-25 14:36:00,
2013-04-25 09:38:00,37.2,29.7,30.00,NW,321,0.0,4.0,74,0.00,,CLR,0.08,VWS V12.07,2013-04-25 14:38:00,
2013-04-25 09:39:00,37.2,30.0,30.00,NW,320,0.0,4.0,75,0.00,,CLR,0.08,VWS V12.07,2013-04-25 14:39:00,
2013-04-25 09:41:00,37.3,30.4,30.00,NW,321,1.0,4.0,76,0.00,,CLR,0.08,VWS V12.07,2013-04-25 14:41:00,
2013-04-25 09:44:00,37.6,30.4,30.01,East,89,0.0,4.0,75,0.00,,CLR,0.08,VWS V12.07,2013-04-25 14:44:00,
2013-04-25 09:45:00,37.6,30.4,30.01,East,89,0.0,4.0,75,0.00,,CLR,0.08,VWS V12.07,2013-04-25 14:45:00,
2013-04-25 09:46:00,37.6,30.4,30.01,East,89,0.0,4.0,75,0.00,,CLR,0.08,VWS V12.07,2013-04-25 14:46:00,
2013-04-25 09:49:00,37.8,30.3,30.01,West,264,2.0,3.0,74,0.00,,SCT016,0.08,VWS V12.07,2013-04-25 14:49:00,
2013-04-25 09:50:00,37.9,30.0,30.01,West,264,1.0,3.0,73,0.00,,SCT016,0.08,VWS V12.07,2013-04-25 14:50:00,
2013-04-25 09:51:00,37.9,30.0,30.01,West,264,0.0,3.0,73,0.00,,SCT016,0.08,VWS V12.07,2013-04-25 14:51:00,
2013-04-25 09:55:00,38.3,30.4,30.01,WNW,290,0.0,5.0,73,0.00,,SCT016,0.08,VWS V12.07,2013-04-25 14:55:00,
2013-04-25 09:56:00,38.3,30.1,30.01,WNW,290,0.0,5.0,72,0.00,,SCT016,0.08,VWS V12.07,2013-04-25 14:56:00,
2013-04-25 09:57:00,38.3,30.1,30.01,NW,307,2.0,5.0,72,0.00,,SCT016,0.08,VWS V12.07,2013-04-25 14:57:00,
2013-04-25 10:01:00,38.5,29.6,30.01,NW,307,1.0,3.0,70,0.00,,SCT016,0.08,VWS V12.07,2013-04-25 15:01:00,
2013-04-25 10:02:00,38.5,29.6,30.01,NW,311,1.0,3.0,70,0.00,,SCT016,0.08,VWS V12.07,2013-04-25 15:02:00,
2013-04-25 10:07:00,38.9,29.6,30.01,NNW,328,0.0,3.0,69,0.00,,SCT016,0.08,VWS V12.07,2013-04-25 15:07:00,
2013-04-25 10:08:00,39.1,30.2,30.01,NNW,328,0.0,3.0,70,0.00,,SCT016,0.08,VWS V12.07,2013-04-25 15:08:00,
2013-04-25 10:12:00,39.1,29.1,30.01,NW,323,0.0,4.0,67,0.00,,SCT016,0.08,VWS V12.07,2013-04-25 15:12:00,
2013-04-25 10:13:00,39.1,29.1,30.01,ENE,67,0.0,4.0,67,0.00,,SCT016,0.08,VWS V12.07,2013-04-25 15:13:00,
2013-04-25 10:17:00,39.2,28.8,30.02,WNW,285,2.0,4.0,66,0.00,,SCT016,0.08,VWS V12.07,2013-04-25 15:17:00,
2013-04-25 10:18:00,39.3,28.5,30.02,NW,304,2.0,4.0,65,0.00,,SCT016,0.08,VWS V12.07,2013-04-25 15:18:00,
2013-04-25 10:22:00,39.1,27.6,30.02,WSW,250,1.0,6.0,63,0.00,,SCT016,0.08,VWS V12.07,2013-04-25 15:22:00,
2013-04-25 10:23:00,39.1,28.3,30.02,WSW,250,1.0,6.0,65,0.00,,SCT016,0.08,VWS V12.07,2013-04-25 15:23:00,
2013-04-25 10:24:00,39.1,28.7,30.02,WSW,250,0.0,6.0,66,0.00,,SCT016,0.08,VWS V12.07,2013-04-25 15:24:00,
2013-04-25 10:27:00,39.5,28.4,30.02,NE,36,3.0,6.0,64,0.00,,SCT016,0.08,VWS V12.07,2013-04-25 15:27:00,
2013-04-25 10:28:00,39.6,29.6,30.02,East,81,2.0,6.0,67,0.00,,SCT016,0.08,VWS V12.07,2013-04-25 15:28:00,
2013-04-25 10:29:00,39.6,29.2,30.02,SSW,202,2.0,3.0,66,0.00,,SCT016,0.08,VWS V12.07,2013-04-25 15:29:00,
2013-04-25 10:32:00,39.2,29.2,30.02,WSW,240,2.0,3.0,67,0.00,,SCT016,0.08,VWS V12.07,2013-04-25 15:32:00,
2013-04-25 10:34:00,39.2,28.8,30.02,WSW,240,2.0,3.0,66,0.00,,SCT016,0.08,VWS V12.07,2013-04-25 15:34:00,
2013-04-25 10:38:00,38.9,28.9,30.02,WNW,286,0.0,4.0,67,0.00,,BKN036,0.08,VWS V12.07,2013-04-25 15:38:00,
2013-04-25 10:39:00,38.8,29.2,30.02,WNW,286,0.0,4.0,68,0.00,,BKN036,0.08,VWS V12.07,2013-04-25 15:39:00,
2013-04-25 10:43:00,38.6,29.0,30.02,WNW,286,0.0,4.0,68,0.00,,BKN036,0.08,VWS V12.07,2013-04-25 15:43:00,
2013-04-25 10:44:00,38.8,29.2,30.03,WNW,286,0.0,4.0,68,0.00,,BKN036,0.08,VWS V12.07,2013-04-25 15:44:00,
2013-04-25 10:45:00,38.8,28.4,30.03,West,281,1.0,4.0,66,0.00,,BKN036,0.08,VWS V12.07,2013-04-25 15:45:00,
2013-04-25 10:48:00,38.9,28.5,30.03,West,281,2.0,2.0,66,0.00,,BKN035,0.08,VWS V12.07,2013-04-25 15:48:00,
2013-04-25 10:49:00,38.9,28.5,30.03,West,281,1.0,2.0,66,0.00,,BKN035,0.08,VWS V12.07,2013-04-25 15:49:00,
2013-04-25 10:50:00,38.9,28.5,30.03,West,281,2.0,2.0,66,0.00,,BKN035,0.08,VWS V12.07,2013-04-25 15:50:00,
2013-04-25 10:54:00,38.8,28.4,30.03,WNW,294,0.0,4.0,66,0.00,,BKN033,0.08,VWS V12.07,2013-04-25 15:54:00,
2013-04-25 10:55:00,38.8,28.1,30.03,WNW,294,1.0,4.0,65,0.00,,BKN033,0.08,VWS V12.07,2013-04-25 15:55:00,
2013-04-25 10:57:00,38.8,28.8,30.03,West,275,1.0,4.0,67,0.00,,BKN033,0.08,VWS V12.07,2013-04-25 15:57:00,
2013-04-25 11:00:00,38.5,27.0,30.04,SW,236,2.0,6.0,63,0.00,,BKN033,0.08,VWS V12.07,2013-04-25 16:00:00,
2013-04-25 11:02:00,38.5,27.4,30.04,SW,236,0.0,6.0,64,0.00,,BKN033,0.08,VWS V12.07,2013-04-25 16:02:00,
2013-04-25 11:05:00,39.1,28.7,30.04,West,278,2.0,6.0,66,0.00,,BKN035,0.08,VWS V12.07,2013-04-25 16:05:00,
2013-04-25 11:06:00,39.2,28.4,30.04,NW,309,1.0,6.0,65,0.00,,BKN035,0.08,VWS V12.07,2013-04-25 16:06:00,
2013-04-25 11:07:00,39.3,28.2,30.04,NW,309,1.0,6.0,64,0.00,,BKN035,0.08,VWS V12.07,2013-04-25 16:07:00,
2013-04-25 11:10:00,39.5,28.0,30.04,NW,304,2.0,4.0,63,0.00,,BKN033,0.08,VWS V12.07,2013-04-25 16:10:00,
2013-04-25 11:11:00,39.3,27.8,30.04,NNW,330,3.0,4.0,63,0.00,,BKN033,0.08,VWS V12.07,2013-04-25 16:11:00,
2013-04-25 11:12:00,39.3,27.0,30.04,NW,320,1.0,4.0,61,0.00,,BKN033,0.08,VWS V12.07,2013-04-25 16:12:00,
2013-04-25 11:15:00,38.9,26.6,30.05,West,274,0.0,4.0,61,0.00,,BKN033,0.08,VWS V12.07,2013-04-25 16:15:00,
2013-04-25 11:16:00,38.9,27.4,30.05,West,274,0.0,4.0,63,0.00,,BKN033,0.08,VWS V12.07,2013-04-25 16:16:00,
2013-04-25 11:17:00,38.9,27.4,30.05,West,274,2.0,4.0,63,0.00,,BKN033,0.08,VWS V12.07,2013-04-25 16:17:00,
2013-04-25 11:21:00,39.5,26.4,30.05,SW,226,1.0,5.0,59,0.00,,BKN033,0.08,VWS V12.07,2013-04-25 16:21:00,
2013-04-25 11:22:00,39.5,26.4,30.05,SW,226,2.0,5.0,59,0.00,,BKN033,0.08,VWS V12.07,2013-04-25 16:22:00,
2013-04-25 11:23:00,39.8,27.1,30.05,NE,44,3.0,7.0,60,0.00,,BKN033,0.08,VWS V12.07,2013-04-25 16:23:00,
2013-04-25 11:26:00,39.9,27.2,30.05,NNW,348,5.0,7.0,60,0.00,,BKN033,0.08,VWS V12.07,2013-04-25 16:26:00,
2013-04-25 11:27:00,39.8,26.7,30.05,WNW,299,0.0,7.0,59,0.00,,BKN033,0.08,VWS V12.07,2013-04-25 16:27:00,
2013-04-25 11:28:00,39.9,27.6,30.05,WNW,283,3.0,7.0,61,0.00,,BKN033,0.08,VWS V12.07,2013-04-25 16:28:00,
2013-04-25 11:32:00,39.2,28.1,30.05,NNW,345,0.0,6.0,64,0.00,,BKN033,0.08,VWS V12.07,2013-04-25 16:32:00,
2013-04-25 11:33:00,39.1,27.6,30.05,NNE,31,1.0,6.0,63,0.00,,BKN033,0.08,VWS V12.07,2013-04-25 16:33:00,
2013-04-25 11:34:00,38.9,27.8,30.05,NNE,31,1.0,6.0,64,0.00,,BKN047,0.08,VWS V12.07,2013-04-25 16:34:00,
2013-04-25 11:38:00,38.9,26.6,30.05,WNW,298,0.0,6.0,61,0.00,,BKN047,0.08,VWS V12.07,2013-04-25 16:38:00,
2013-04-25 11:39:00,38.9,26.6,30.05,WSW,252,2.0,3.0,61,0.00,,BKN047,0.08,VWS V12.07,2013-04-25 16:39:00,
2013-04-25 11:43:00,38.9,26.2,30.05,NNW,329,1.0,3.0,60,0.00,,BKN047,0.08,VWS V12.07,2013-04-25 16:43:00,
2013-04-25 11:44:00,38.9,26.2,30.05,NW,322,1.0,3.0,60,0.00,,BKN047,0.08,VWS V12.07,2013-04-25 16:44:00,
2013-04-25 11:48:00,39.1,27.2,30.05,NNW,344,1.0,4.0,62,0.00,,BKN050,0.08,VWS V12.07,2013-04-25 16:48:00,
2013-04-25 11:49:00,39.3,27.4,30.05,NE,39,3.0,4.0,62,0.00,,BKN050,0.08,VWS V12.07,2013-04-25 16:49:00,
2013-04-25 11:53:00,40.3,27.5,30.05,West,281,2.0,4.0,60,0.00,,BKN050,0.08,VWS V12.07,2013-04-25 16:53:00,
2013-04-25 11:54:00,40.5,27.7,30.05,West,281,0.0,4.0,60,0.00,,BKN050,0.08,VWS V12.07,2013-04-25 16:54:00,
2013-04-25 11:58:00,41.3,25.9,30.05,SW,236,1.0,3.0,54,0.00,,BKN050,0.08,VWS V12.07,2013-04-25 16:58:00,
2013-04-25 11:59:00,41.5,26.1,30.05,WSW,245,2.0,4.0,54,0.00,,BKN050,0.08,VWS V12.07,2013-04-25 16:59:00,
2013-04-25 12:00:00,41.5,26.1,30.05,WSW,245,2.0,4.0,54,0.00,,BKN050,0.08,VWS V12.07,2013-04-25 17:00:00,
2013-04-25 12:04:00,41.2,25.4,30.05,WSW,253,3.0,5.0,53,0.00,,BKN050,0.08,VWS V12.07,2013-04-25 17:04:00,
2013-04-25 12:05:00,41.1,25.7,30.05,WSW,246,2.0,5.0,54,0.00,,BKN044,0.08,VWS V12.07,2013-04-25 17:05:00,
2013-04-25 12:06:00,41.1,25.3,30.05,West,261,2.0,5.0,53,0.00,,BKN044,0.08,VWS V12.07,2013-04-25 17:06:00,
2013-04-25 12:09:00,40.9,26.0,30.05,WNW,291,1.0,4.0,55,0.00,,BKN050,0.08,VWS V12.07,2013-04-25 17:09:00,
2013-04-25 12:10:00,41.1,26.2,30.05,SW,218,3.0,4.0,55,0.00,,BKN050,0.08,VWS V12.07,2013-04-25 17:10:00,
2013-04-25 12:11:00,40.9,25.5,30.05,SW,224,3.0,5.0,54,0.00,,BKN050,0.08,VWS V12.07,2013-04-25 17:11:00,
2013-04-25 12:12:00,40.9,26.0,30.05,West,260,0.0,5.0,55,0.00,,BKN050,0.08,VWS V12.07,2013-04-25 17:12:00,
2013-04-25 12:14:00,41.1,25.7,30.06,WSW,257,3.0,5.0,54,0.00,,BKN050,0.08,VWS V12.07,2013-04-25 17:14:00,
2013-04-25 12:15:00,41.2,24.9,30.06,SSW,213,4.0,5.0,52,0.00,,BKN050,0.08,VWS V12.07,2013-04-25 17:15:00,
2013-04-25 12:16:00,41.3,25.0,30.06,West,266,4.0,6.0,52,0.00,,BKN050,0.08,VWS V12.07,2013-04-25 17:16:00,
2013-04-25 12:18:00,41.8,25.5,30.06,NNE,28,1.0,6.0,52,0.00,,BKN050,0.08,VWS V12.07,2013-04-25 17:18:00,
2013-04-25 12:19:00,41.9,26.0,30.06,South,175,3.0,6.0,53,0.00,,BKN050,0.08,VWS V12.07,2013-04-25 17:19:00,
2013-04-25 12:20:00,41.9,25.6,30.06,SW,214,4.0,7.0,52,0.00,,BKN050,0.08,VWS V12.07,2013-04-25 17:20:00,
2013-04-25 12:21:00,41.8,24.1,30.06,SSW,195,7.0,7.0,49,0.00,,BKN050,0.08,VWS V12.07,2013-04-25 17:21:00,
2013-04-25 12:23:00,41.8,26.4,30.06,SSW,200,2.0,7.0,54,0.00,,BKN050,0.08,VWS V12.07,2013-04-25 17:23:00,
2013-04-25 12:24:00,41.9,24.6,30.06,NW,323,2.0,7.0,50,0.00,,BKN050,0.08,VWS V12.07,2013-04-25 17:24:00,
2013-04-25 12:25:00,41.9,24.1,30.06,South,191,2.0,10.0,49,0.00,,BKN050,0.08,VWS V12.07,2013-04-25 17:25:00,
2013-04-25 12:26:00,41.8,23.6,30.06,West,262,2.0,10.0,48,0.00,,BKN050,0.08,VWS V12.07,2013-04-25 17:26:00,
2013-04-25 12:27:00,41.8,23.6,30.06,West,262,2.0,10.0,48,0.00,,BKN050,0.08,VWS V12.07,2013-04-25 17:27:00,
2013-04-25 12:28:00,41.6,23.4,30.06,SW,229,3.0,10.0,48,0.00,,BKN050,0.08,VWS V12.07,2013-04-25 17:28:00,
2013-04-25 12:30:00,41.3,24.5,30.06,West,274,1.0,10.0,51,0.00,,BKN050,0.08,VWS V12.07,2013-04-25 17:30:00,
2013-04-25 12:31:00,41.2,24.5,30.06,SW,229,4.0,10.0,51,0.00,,BKN050,0.08,VWS V12.07,2013-04-25 17:31:00,
2013-04-25 12:32:00,41.2,24.5,30.06,SW,233,1.0,10.0,51,0.00,,BKN050,0.08,VWS V12.07,2013-04-25 17:32:00,
2013-04-25 12:34:00,41.1,24.4,30.06,SW,233,4.0,10.0,51,0.00,,BKN050,0.08,VWS V12.07,2013-04-25 17:34:00,
2013-04-25 12:35:00,41.1,25.7,30.06,WSW,243,1.0,10.0,54,0.00,,OVC050,0.08,VWS V12.07,2013-04-25 17:35:00,
2013-04-25 12:36:00,41.1,25.7,30.06,SW,217,1.0,10.0,54,0.00,,OVC050,0.08,VWS V12.07,2013-04-25 17:36:00,
2013-04-25 12:37:00,41.2,25.4,30.06,SW,224,0.0,10.0,53,0.00,,OVC050,0.08,VWS V12.07,2013-04-25 17:37:00,
2013-04-25 12:39:00,41.8,25.0,30.06,SW,217,2.0,3.0,51,0.00,,OVC050,0.08,VWS V12.07,2013-04-25 17:39:00,
2013-04-25 12:41:00,41.6,22.9,30.06,West,271,1.0,7.0,47,0.00,,OVC050,0.08,VWS V12.07,2013-04-25 17:41:00,
2013-04-25 12:42:00,41.6,24.8,30.06,South,174,2.0,7.0,51,0.00,,OVC050,0.08,VWS V12.07,2013-04-25 17:42:00,
2013-04-25 12:44:00,41.8,24.5,30.06,SSW,206,4.0,7.0,50,0.00,,OVC050,0.08,VWS V12.07,2013-04-25 17:44:00,
2013-04-25 12:46:00,42.1,25.3,30.06,South,176,2.0,7.0,51,0.00,,OVC050,0.08,VWS V12.07,2013-04-25 17:46:00,
2013-04-25 12:47:00,42.2,23.9,30.06,SW,221,6.0,9.0,48,0.00,,OVC050,0.08,VWS V12.07,2013-04-25 17:47:00,
2013-04-25 12:48:00,42.2,23.4,30.06,SW,235,5.0,9.0,47,0.00,,OVC050,0.08,VWS V12.07,2013-04-25 17:48:00,
2013-04-25 12:49:00,42.2,23.4,30.06,SW,219,3.0,9.0,47,0.00,,OVC050,0.08,VWS V12.07,2013-04-25 17:49:00,
2013-04-25 12:51:00,42.2,23.4,30.06,SW,226,1.0,9.0,47,0.00,,OVC050,0.08,VWS V12.07,2013-04-25 17:51:00,
2013-04-25 12:52:00,42.3,23.5,30.06,SW,220,0.0,9.0,47,0.00,,OVC050,0.08,VWS V12.07,2013-04-25 17:52:00,
2013-04-25 12:53:00,42.3,25.0,30.06,South,191,3.0,9.0,50,0.00,,OVC050,0.08,VWS V12.07,2013-04-25 17:53:00,
2013-04-25 12:55:00,42.5,24.2,30.06,West,264,2.0,9.0,48,0.00,,OVC050,0.08,VWS V12.07,2013-04-25 17:55:00,
2013-04-25 12:56:00,42.5,24.2,30.06,SSW,201,3.0,9.0,48,0.00,,OVC050,0.08,VWS V12.07,2013-04-25 17:56:00,
2013-04-25 12:57:00,42.6,24.8,30.06,WSW,242,5.0,9.0,49,0.00,,OVC050,0.08,VWS V12.07,2013-04-25 17:57:00,
2013-04-25 12:59:00,42.5,24.2,30.07,West,260,2.0,7.0,48,0.00,,OVC050,0.08,VWS V12.07,2013-04-25 17:59:00,
2013-04-25 13:00:00,42.3,24.0,30.07,SSW,210,5.0,7.0,48,0.00,,OVC050,0.08,VWS V12.07,2013-04-25 18:00:00,
2013-04-25 13:01:00,42.2,23.9,30.07,SSW,206,11.0,14.0,48,0.00,,OVC050,0.08,VWS V12.07,2013-04-25 18:01:00,
2013-04-25 13:02:00,41.9,24.1,30.07,SW,231,3.0,14.0,49,0.00,,OVC050,0.08,VWS V12.07,2013-04-25 18:02:00,
2013-04-25 13:04:00,42.1,24.3,30.07,South,180,4.0,14.0,49,0.00,,OVC050,0.08,VWS V12.07,2013-04-25 18:04:00,
2013-04-25 13:05:00,42.2,23.9,30.07,SW,214,2.0,14.0,48,0.00,,OVC050,0.08,VWS V12.07,2013-04-25 18:05:00,
2013-04-25 13:06:00,42.5,25.7,30.07,SSW,210,0.0,14.0,51,0.00,,OVC050,0.08,VWS V12.07,2013-04-25 18:06:00,
2013-04-25 13:07:00,42.9,25.6,30.07,WSW,245,0.0,14.0,50,0.00,,OVC050,0.08,VWS V12.07,2013-04-25 18:07:00,
2013-04-25 13:09:00,43.2,25.8,30.07,SSW,192,3.0,5.0,50,0.00,,OVC050,0.08,VWS V12.07,2013-04-25 18:09:00,
2013-04-25 13:10:00,43.2,23.8,30.07,SSW,200,6.0,6.0,46,0.00,,OVC050,0.08,VWS V12.07,2013-04-25 18:10:00,
2013-04-25 13:11:00,42.9,23.0,30.07,SSW,193,2.0,8.0,45,0.00,,OVC050,0.08,VWS V12.07,2013-04-25 18:11:00,
2013-04-25 13:13:00,43.1,24.3,30.07,East,79,0.0,8.0,47,0.00,,OVC050,0.08,VWS V12.07,2013-04-25 18:13:00,
2013-04-25 13:15:00,43.3,24.4,30.07,SW,226,6.0,8.0,47,0.00,,OVC050,0.08,VWS V12.07,2013-04-25 18:15:00,
2013-04-25 13:16:00,43.3,23.9,30.07,North,4,6.0,8.0,46,0.00,,OVC050,0.08,VWS V12.07,2013-04-25 18:16:00,
2013-04-25 13:18:00,43.3,24.4,30.07,SSW,192,5.0,8.0,47,0.00,,OVC050,0.08,VWS V12.07,2013-04-25 18:18:00,
2013-04-25 13:20:00,43.1,23.2,30.07,South,184,5.0,6.0,45,0.00,,OVC050,0.08,VWS V12.07,2013-04-25 18:20:00,
2013-04-25 13:21:00,43.1,23.2,30.07,South,177,4.0,6.0,45,0.00,,OVC050,0.08,VWS V12.07,2013-04-25 18:21:00,
2013-04-25 13:22:00,42.9,23.6,30.07,South,186,4.0,7.0,46,0.00,,OVC050,0.08,VWS V12.07,2013-04-25 18:22:00,
2013-04-25 13:23:00,42.5,23.2,30.07,South,186,4.0,7.0,46,0.00,,OVC050,0.08,VWS V12.07,2013-04-25 18:23:00,
2013-04-25 13:25:00,42.2,23.9,30.07,WNW,300,3.0,7.0,48,0.00,,OVC050,0.08,VWS V12.07,2013-04-25 18:25:00,
2013-04-25 13:26:00,42.1,23.8,30.07,WNW,282,2.0,7.0,48,0.00,,OVC050,0.08,VWS V12.07,2013-04-25 18:26:00,
2013-04-25 13:27:00,42.1,23.3,30.07,WSW,248,3.0,7.0,47,0.00,,OVC050,0.08,VWS V12.07,2013-04-25 18:27:00,
2013-04-25 13:29:00,41.6,22.9,30.07,WSW,249,5.0,9.0,47,0.00,,OVC050,0.08,VWS V12.07,2013-04-25 18:29:00,
2013-04-25 13:31:00,41.5,23.3,30.07,WSW,253,1.0,9.0,48,0.00,,OVC050,0.08,VWS V12.07,2013-04-25 18:31:00,
2013-04-25 13:32:00,41.6,22.9,30.07,SW,220,2.0,9.0,47,0.00,,OVC050,0.08,VWS V12.07,2013-04-25 18:32:00,
2013-04-25 13:34:00,42.1,22.3,30.07,SW,215,3.0,9.0,45,0.00,,SCT050,0.08,VWS V12.07,2013-04-25 18:34:00,
2013-04-25 13:36:00,42.5,22.1,30.07,NNW,330,3.0,9.0,44,0.00,,SCT050,0.08,VWS V12.07,2013-04-25 18:36:00,
2013-04-25 13:37:00,42.8,24.0,30.07,ENE,64,2.0,9.0,47,0.00,,SCT050,0.08,VWS V12.07,2013-04-25 18:37:00,
2013-04-25 13:39:00,43.3,22.3,30.07,SW,214,2.0,5.0,43,0.00,,SCT050,0.08,VWS V12.07,2013-04-25 18:39:00,
2013-04-25 13:42:00,43.8,24.9,30.07,SSE,151,4.0,5.0,47,0.00,,SCT050,0.08,VWS V12.07,2013-04-25 18:42:00,
2013-04-25 13:45:00,43.3,22.9,30.07,SW,221,4.0,11.0,44,0.00,,OVC050,0.08,VWS V12.07,2013-04-25 18:45:00,
2013-04-25 13:47:00,43.1,23.2,30.07,SW,222,4.0,11.0,45,0.00,,OVC050,0.08,VWS V12.07,2013-04-25 18:47:00,
2013-04-25 13:49:00,42.9,24.1,30.07,South,191,4.0,7.0,47,0.00,,BKN055,0.08,VWS V12.07,2013-04-25 18:49:00,
2013-04-25 13:50:00,42.9,24.6,30.07,South,171,5.0,9.0,48,0.00,,BKN055,0.08,VWS V12.07,2013-04-25 18:50:00,
2013-04-25 13:52:00,43.1,22.1,30.07,SW,232,2.0,11.0,43,0.00,,BKN055,0.08,VWS V12.07,2013-04-25 18:52:00,
2013-04-25 13:54:00,43.3,22.9,30.07,SSW,203,5.0,11.0,44,0.00,,BKN055,0.08,VWS V12.07,2013-04-25 18:54:00,
2013-04-25 13:55:00,43.5,22.0,30.07,South,186,3.0,11.0,42,0.00,,BKN055,0.08,VWS V12.07,2013-04-25 18:55:00,
2013-04-25 13:57:00,43.5,22.0,30.07,WSW,238,3.0,11.0,42,0.00,,BKN055,0.08,VWS V12.07,2013-04-25 18:57:00,
2013-04-25 13:58:00,43.5,22.0,30.07,SSE,155,3.0,11.0,42,0.00,,BKN055,0.08,VWS V12.07,2013-04-25 18:58:00,
2013-04-25 14:00:00,43.3,21.2,30.07,WSW,252,1.0,9.0,41,0.00,,BKN055,0.08,VWS V12.07,2013-04-25 19:00:00,
2013-04-25 14:01:00,43.3,21.8,30.07,SW,224,3.0,9.0,42,0.00,,BKN055,0.08,VWS V12.07,2013-04-25 19:01:00,
2013-04-25 14:03:00,43.3,21.2,30.07,SSW,210,5.0,9.0,41,0.00,,BKN055,0.08,VWS V12.07,2013-04-25 19:03:00,
2013-04-25 14:05:00,43.3,24.4,30.07,SSW,208,7.0,10.0,47,0.00,,SCT050,0.08,VWS V12.07,2013-04-25 19:05:00,
2013-04-25 14:06:00,43.1,22.1,30.07,SSW,213,5.0,10.0,43,0.00,,SCT050,0.08,VWS V12.07,2013-04-25 19:06:00,
2013-04-25 14:08:00,42.9,22.5,30.07,SSW,202,4.0,10.0,44,0.00,,SCT050,0.08,VWS V12.07,2013-04-25 19:08:00,
2013-04-25 14:10:00,42.9,22.0,30.07,SW,221,4.0,10.0,43,0.00,,BKN055,0.08,VWS V12.07,2013-04-25 19:10:00,
2013-04-25 14:12:00,43.1,22.7,30.07,SSW,194,6.0,10.0,44,0.00,,BKN055,0.08,VWS V12.07,2013-04-25 19:12:00,
2013-04-25 14:13:00,43.1,22.1,30.07,SW,229,4.0,10.0,43,0.00,,BKN055,0.08,VWS V12.07,2013-04-25 19:13:00,
2013-04-25 14:14:00,43.1,22.1,30.07,SW,217,5.0,10.0,43,0.00,,BKN055,0.08,VWS V12.07,2013-04-25 19:14:00,
2013-04-25 14:15:00,42.9,22.0,30.07,SW,215,3.0,10.0,43,0.00,,BKN055,0.08,VWS V12.07,2013-04-25 19:15:00,
2013-04-25 14:17:00,43.2,22.2,30.07,SW,226,4.0,10.0,43,0.00,,BKN055,0.08,VWS V12.07,2013-04-25 19:17:00,
2013-04-25 14:18:00,43.2,21.1,30.07,SW,221,5.0,10.0,41,0.00,,BKN055,0.08,VWS V12.07,2013-04-25 19:18:00,
2013-04-25 14:20:00,43.2,21.7,30.07,South,183,3.0,7.0,42,0.00,,BKN055,0.08,VWS V12.07,2013-04-25 19:20:00,
2013-04-25 14:21:00,43.3,21.8,30.07,SW,228,4.0,9.0,42,0.00,,BKN055,0.08,VWS V12.07,2013-04-25 19:21:00,
2013-04-25 14:22:00,43.5,20.8,30.07,WSW,246,4.0,0.0,40,0.00,,BKN055,0.08,VWS V12.07,2013-04-25 19:22:00,
2013-04-25 14:23:00,43.5,21.4,30.07,WSW,240,5.0,9.0,41,0.00,,BKN055,0.08,VWS V12.07,2013-04-25 19:23:00,
2013-04-25 14:25:00,43.3,19.4,30.07,SSW,207,4.0,4.0,38,0.00,,BKN055,0.08,VWS V12.07,2013-04-25 19:25:00,
2013-04-25 14:26:00,43.5,20.8,30.07,West,259,2.0,10.0,40,0.00,,BKN055,0.08,VWS V12.07,2013-04-25 19:26:00,
2013-04-25 14:28:00,43.6,21.5,30.07,SW,218,6.0,10.0,41,0.00,,BKN055,0.08,VWS V12.07,2013-04-25 19:28:00,
2013-04-25 14:29:00,43.6,20.9,30.08,WSW,238,2.0,10.0,40,0.00,,BKN055,0.08,VWS V12.07,2013-04-25 19:29:00,
2013-04-25 14:30:00,43.6,21.5,30.08,SW,219,5.0,10.0,41,0.00,,BKN055,0.08,VWS V12.07,2013-04-25 19:30:00,
2013-04-25 14:31:00,43.6,21.5,30.08,South,178,5.0,10.0,41,0.00,,BKN055,0.08,VWS V12.07,2013-04-25 19:31:00,
2013-04-25 14:33:00,43.5,20.8,30.08,SSW,193,4.0,10.0,40,0.00,,BKN055,0.08,VWS V12.07,2013-04-25 19:33:00,
2013-04-25 14:34:00,43.6,20.9,30.08,SW,224,4.0,10.0,40,0.00,,BKN055,0.08,VWS V12.07,2013-04-25 19:34:00,
2013-04-25 14:36:00,43.6,21.5,30.08,SSW,213,7.0,10.0,41,0.00,,BKN050,0.08,VWS V12.07,2013-04-25 19:36:00,
2013-04-25 14:37:00,43.6,21.5,30.08,SW,215,5.0,10.0,41,0.00,,BKN050,0.08,VWS V12.07,2013-04-25 19:37:00,
2013-04-25 14:38:00,43.5,23.0,30.08,SSW,205,3.0,7.0,44,0.00,,BKN050,0.08,VWS V12.07,2013-04-25 19:38:00,
2013-04-25 14:39:00,43.6,23.1,30.08,SW,218,3.0,7.0,44,0.00,,BKN050,0.08,VWS V12.07,2013-04-25 19:39:00,
2013-04-25 14:41:00,43.5,23.6,30.08,SW,221,3.0,7.0,45,0.00,,BKN050,0.08,VWS V12.07,2013-04-25 19:41:00,
2013-04-25 14:42:00,43.5,23.6,30.08,SSW,205,1.0,7.0,45,0.00,,BKN050,0.08,VWS V12.07,2013-04-25 19:42:00,
2013-04-25 14:44:00,43.5,23.0,30.07,SSW,194,3.0,7.0,44,0.00,,BKN050,0.08,VWS V12.07,2013-04-25 19:44:00,
2013-04-25 14:45:00,43.6,23.1,30.07,SSW,203,3.0,7.0,44,0.00,,BKN050,0.08,VWS V12.07,2013-04-25 19:45:00,
2013-04-25 14:47:00,43.3,22.9,30.07,SW,215,6.0,7.0,44,0.00,,BKN050,0.08,VWS V12.07,2013-04-25 19:47:00,
2013-04-25 14:49:00,43.3,21.2,30.07,SSW,196,9.0,10.0,41,0.00,,BKN060,0.08,VWS V12.07,2013-04-25 19:49:00,
2013-04-25 14:51:00,43.5,21.4,30.07,SSW,195,2.0,10.0,41,0.00,,BKN060,0.08,VWS V12.07,2013-04-25 19:51:00,
2013-04-25 14:52:00,43.6,21.5,30.07,SSW,206,3.0,10.0,41,0.00,,BKN060,0.08,VWS V12.07,2013-04-25 19:52:00,
2013-04-25 14:54:00,43.6,22.6,30.07,South,172,2.0,10.0,43,0.00,,BKN060,0.08,VWS V12.07,2013-04-25 19:54:00,
2013-04-25 14:55:00,43.6,22.6,30.07,SSW,193,4.0,10.0,43,0.00,,BKN060,0.08,VWS V12.07,2013-04-25 19:55:00,
2013-04-25 14:56:00,43.5,22.0,30.07,SSW,207,1.0,10.0,42,0.00,,BKN060,0.08,VWS V12.07,2013-04-25 19:56:00,
2013-04-25 14:57:00,43.6,21.5,30.07,SSW,211,4.0,10.0,41,0.00,,BKN060,0.08,VWS V12.07,2013-04-25 19:57:00,
2013-04-25 14:59:00,43.8,22.2,30.07,South,169,3.0,7.0,42,0.00,,BKN060,0.08,VWS V12.07,2013-04-25 19:59:00,
2013-04-25 15:00:00,43.8,22.2,30.07,South,172,2.0,7.0,42,0.00,,BKN060,0.08,VWS V12.07,2013-04-25 20:00:00,
2013-04-25 15:01:00,43.6,22.0,30.07,SW,229,2.0,7.0,42,0.00,,BKN060,0.08,VWS V12.07,2013-04-25 20:01:00,
2013-04-25 15:02:00,43.6,20.9,30.07,SW,229,2.0,7.0,40,0.00,,BKN060,0.08,VWS V12.07,2013-04-25 20:02:00,
2013-04-25 15:03:00,43.8,21.6,30.07,NE,41,2.0,7.0,41,0.00,,BKN060,0.08,VWS V12.07,2013-04-25 20:03:00,
2013-04-25 15:05:00,44.1,21.3,30.07,SSW,195,4.0,7.0,40,0.00,,BKN050,0.08,VWS V12.07,2013-04-25 20:05:00,
2013-04-25 15:06:00,44.2,22.6,30.07,SSW,210,5.0,7.0,42,0.00,,BKN050,0.08,VWS V12.07,2013-04-25 20:06:00,
2013-04-25 15:08:00,44.2,21.4,30.07,SW,224,5.0,8.0,40,0.00,,BKN060,0.08,VWS V12.07,2013-04-25 20:08:00,
2013-04-25 15:09:00,44.2,20.8,30.07,SSW,193,4.0,8.0,39,0.00,,BKN060,0.08,VWS V12.07,2013-04-25 20:09:00,
2013-04-25 15:10:00,44.2,20.2,30.07,South,181,3.0,8.0,38,0.00,,BKN060,0.08,VWS V12.07,2013-04-25 20:10:00,
2013-04-25 15:11:00,44.5,22.9,30.07,SSE,158,1.0,8.0,42,0.00,,BKN060,0.08,VWS V12.07,2013-04-25 20:11:00,
2013-04-25 15:13:00,44.6,21.2,30.07,SW,214,5.0,8.0,39,0.00,,BKN060,0.08,VWS V12.07,2013-04-25 20:13:00,
2013-04-25 15:14:00,44.6,20.0,30.07,WSW,243,0.0,8.0,37,0.00,,BKN060,0.08,VWS V12.07,2013-04-25 20:14:00,
2013-04-25 15:15:00,44.6,21.2,30.07,ESE,114,3.0,8.0,39,0.00,,BKN060,0.08,VWS V12.07,2013-04-25 20:15:00,
2013-04-25 15:16:00,44.8,21.4,30.07,SW,217,0.0,8.0,39,0.00,,BKN060,0.08,VWS V12.07,2013-04-25 20:16:00,
2013-04-25 15:17:00,45.1,22.8,30.07,SW,217,0.0,8.0,41,0.00,,BKN060,0.08,VWS V12.07,2013-04-25 20:17:00,
2013-04-25 15:18:00,44.6,20.0,30.07,WSW,243,0.0,8.0,37,0.00,,BKN060,0.08,VWS V12.07,2013-04-25 20:18:00,
2013-04-25 15:19:00,44.9,20.9,30.07,South,189,5.0,7.0,38,0.00,,BKN060,0.08,VWS V12.07,2013-04-25 20:19:00,
2013-04-25 15:20:00,44.8,22.0,30.07,South,189,1.0,7.0,40,0.00,,BKN060,0.08,VWS V12.07,2013-04-25 20:20:00,
2013-04-25 15:21:00,44.8,20.8,30.07,South,189,0.0,7.0,38,0.00,,BKN060,0.08,VWS V12.07,2013-04-25 20:21:00,
2013-04-25 15:22:00,44.8,23.1,30.07,South,189,3.0,7.0,42,0.00,,BKN060,0.08,VWS V12.07,2013-04-25 20:22:00,
2013-04-25 15:23:00,44.9,23.2,30.07,South,190,1.0,7.0,42,0.00,,BKN060,0.08,VWS V12.07,2013-04-25 20:23:00,
2013-04-25 15:25:00,44.8,20.8,30.07,South,171,5.0,7.0,38,0.00,,BKN060,0.08,VWS V12.07,2013-04-25 20:25:00,
2013-04-25 15:26:00,44.8,20.1,30.07,SSW,205,6.0,7.0,37,0.00,,BKN060,0.08,VWS V12.07,2013-04-25 20:26:00,
2013-04-25 15:27:00,44.9,20.9,30.07,South,191,4.0,8.0,38,0.00,,BKN060,0.08,VWS V12.07,2013-04-25 20:27:00,
2013-04-25 15:28:00,44.9,23.8,30.07,SSW,203,4.0,8.0,43,0.00,,BKN060,0.08,VWS V12.07,2013-04-25 20:28:00,
2013-04-25 15:30:00,44.9,22.6,30.08,SSW,211,6.0,8.0,41,0.00,,BKN060,0.08,VWS V12.07,2013-04-25 20:30:00,
2013-04-25 15:31:00,44.8,20.8,30.08,WSW,247,5.0,8.0,38,0.00,,BKN060,0.08,VWS V12.07,2013-04-25 20:31:00,
2013-04-25 15:32:00,44.5,20.5,30.08,SW,220,2.0,10.0,38,0.00,,BKN060,0.08,VWS V12.07,2013-04-25 20:32:00,
2013-04-25 15:33:00,44.5,21.7,30.08,SW,220,3.0,10.0,40,0.00,,BKN060,0.08,VWS V12.07,2013-04-25 20:33:00,
2013-04-25 15:34:00,44.6,22.4,30.08,WSW,241,0.0,10.0,41,0.00,,SCT060,0.08,VWS V12.07,2013-04-25 20:34:00,
2013-04-25 15:36:00,44.8,22.0,30.08,SW,220,3.0,10.0,40,0.00,,SCT060,0.08,VWS V12.07,2013-04-25 20:36:00,
2013-04-25 15:37:00,44.6,20.6,30.08,WSW,241,4.0,10.0,38,0.00,,SCT060,0.08,VWS V12.07,2013-04-25 20:37:00,
2013-04-25 15:38:00,44.5,20.5,30.08,WSW,245,1.0,10.0,38,0.00,,SCT060,0.08,VWS V12.07,2013-04-25 20:38:00,
2013-04-25 15:40:00,44.2,20.2,30.08,South,188,4.0,9.0,38,0.00,,SCT060,0.08,VWS V12.07,2013-04-25 20:40:00,
2013-04-25 15:41:00,44.3,20.9,30.08,South,191,4.0,9.0,39,0.00,,SCT060,0.08,VWS V12.07,2013-04-25 20:41:00,
2013-04-25 15:42:00,44.3,22.1,30.08,South,184,3.0,9.0,41,0.00,,SCT060,0.08,VWS V12.07,2013-04-25 20:42:00,
2013-04-25 15:43:00,44.3,22.1,30.08,South,188,2.0,9.0,41,0.00,,SCT060,0.08,VWS V12.07,2013-04-25 20:43:00,
2013-04-25 15:44:00,44.3,22.1,30.08,SSW,192,5.0,9.0,41,0.00,,SCT060,0.08,VWS V12.07,2013-04-25 20:44:00,
2013-04-25 15:45:00,44.3,22.7,30.08,SSW,195,8.0,9.0,42,0.00,,SCT060,0.08,VWS V12.07,2013-04-25 20:45:00,
2013-04-25 15:46:00,44.2,20.2,30.08,South,189,3.0,9.0,38,0.00,,SCT060,0.08,VWS V12.07,2013-04-25 20:46:00,
2013-04-25 15:47:00,44.2,20.2,30.08,SW,214,6.0,9.0,38,0.00,,SCT060,0.08,VWS V12.07,2013-04-25 20:47:00,
2013-04-25 15:48:00,44.1,19.5,30.08,SW,230,3.0,9.0,37,0.00,,SCT060,0.08,VWS V12.07,2013-04-25 20:48:00,
2013-04-25 15:49:00,44.1,19.5,30.08,SW,231,4.0,9.0,37,0.00,,SCT060,0.08,VWS V12.07,2013-04-25 20:49:00,
2013-04-25 15:51:00,44.2,20.2,30.08,SW,214,4.0,9.0,38,0.00,,SCT060,0.08,VWS V12.07,2013-04-25 20:51:00,
2013-04-25 15:54:00,44.3,19.7,30.08,SW,215,3.0,9.0,37,0.00,,SCT060,0.08,VWS V12.07,2013-04-25 20:54:00,
2013-04-25 15:55:00,44.3,20.9,30.08,SSW,210,2.0,9.0,39,0.00,,SCT060,0.08,VWS V12.07,2013-04-25 20:55:00,
2013-04-25 15:56:00,44.2,20.8,30.08,SSW,211,3.0,9.0,39,0.00,,SCT060,0.08,VWS V12.07,2013-04-25 20:56:00,
2013-04-25 15:59:00,44.1,23.0,30.08,SSW,197,0.0,7.0,43,0.00,,SCT060,0.08,VWS V12.07,2013-04-25 20:59:00,
2013-04-25 16:00:00,43.9,24.5,30.08,SSW,212,1.0,7.0,46,0.00,,SCT060,0.08,VWS V12.07,2013-04-25 21:00:00,
2013-04-25 16:01:00,43.9,24.5,30.08,SSW,202,4.0,7.0,46,0.00,,SCT060,0.08,VWS V12.07,2013-04-25 21:01:00,
2013-04-25 16:02:00,43.9,20.6,30.08,SSW,202,2.0,7.0,39,0.00,,SCT060,0.08,VWS V12.07,2013-04-25 21:02:00,
2013-04-25 16:04:00,43.9,23.4,30.08,SSW,207,4.0,7.0,44,0.00,,SCT060,0.08,VWS V12.07,2013-04-25 21:04:00,
2013-04-25 16:05:00,43.9,23.4,30.08,SSW,205,6.0,7.0,44,0.00,,SCT060,0.08,VWS V12.07,2013-04-25 21:05:00,
2013-04-25 16:06:00,43.9,21.7,30.08,SSW,203,4.0,7.0,41,0.00,,SCT060,0.08,VWS V12.07,2013-04-25 21:06:00,
2013-04-25 16:08:00,43.8,22.8,30.08,SW,226,4.0,7.0,43,0.00,,SCT060,0.08,VWS V12.07,2013-04-25 21:08:00,
2013-04-25 16:10:00,43.9,20.6,30.08,West,263,4.0,7.0,39,0.00,,SCT060,0.08,VWS V12.07,2013-04-25 21:10:00,
2013-04-25 16:11:00,43.9,21.2,30.08,South,178,3.0,7.0,40,0.00,,SCT060,0.08,VWS V12.07,2013-04-25 21:11:00,
2013-04-25 16:13:00,44.1,20.7,30.08,SSW,212,0.0,7.0,39,0.00,,SCT060,0.08,VWS V12.07,2013-04-25 21:13:00,
2013-04-25 16:15:00,44.2,20.8,30.08,SSW,198,0.0,7.0,39,0.00,,SCT060,0.08,VWS V12.07,2013-04-25 21:15:00,
2013-04-25 16:16:00,44.2,20.2,30.08,SSW,200,3.0,7.0,38,0.00,,SCT060,0.08,VWS V12.07,2013-04-25 21:16:00,
2013-04-25 16:17:00,44.2,19.6,30.08,South,181,3.0,7.0,37,0.00,,SCT060,0.08,VWS V12.07,2013-04-25 21:17:00,
2013-04-25 16:18:00,44.2,20.2,30.08,South,188,3.0,7.0,38,0.00,,SCT060,0.08,VWS V12.07,2013-04-25 21:18:00,
2013-04-25 16:21:00,43.9,21.7,30.08,SSE,158,2.0,9.0,41,0.00,,SCT060,0.08,VWS V12.07,2013-04-25 21:21:00,
2013-04-25 16:22:00,43.9,21.7,30.08,SSE,158,1.0,9.0,41,0.00,,SCT060,0.08,VWS V12.07,2013-04-25 21:22:00,
2013-04-25 16:23:00,43.9,21.7,30.08,SSW,208,1.0,9.0,41,0.00,,SCT060,0.08,VWS V12.07,2013-04-25 21:23:00,
2013-04-25 16:26:00,44.2,20.2,30.08,SW,236,3.0,9.0,38,0.00,,SCT060,0.08,VWS V12.07,2013-04-25 21:26:00,
2013-04-25 16:27:00,44.2,20.8,30.08,SW,236,2.0,9.0,39,0.00,,SCT060,0.08,VWS V12.07,2013-04-25 21:27:00,
2013-04-25 16:28:00,44.5,21.1,30.08,SW,224,2.0,9.0,39,0.00,,SCT060,0.08,VWS V12.07,2013-04-25 21:28:00,
2013-04-25 16:32:00,44.8,19.5,30.08,SW,234,2.0,4.0,36,0.00,,SCT060,0.08,VWS V12.07,2013-04-25 21:32:00,
2013-04-25 16:33:00,44.9,19.6,30.08,SSW,212,5.0,6.0,36,0.00,,SCT060,0.08,VWS V12.07,2013-04-25 21:33:00,
2013-04-25 16:34:00,44.9,19.6,30.08,SW,217,5.0,9.0,36,0.00,,SCT060,0.08,VWS V12.07,2013-04-25 21:34:00,
2013-04-25 16:37:00,44.5,21.7,30.08,SSW,198,2.0,9.0,40,0.00,,SCT060,0.08,VWS V12.07,2013-04-25 21:37:00,
2013-04-25 16:38:00,44.5,24.0,30.08,SSW,198,1.0,9.0,44,0.00,,SCT060,0.08,VWS V12.07,2013-04-25 21:38:00,
2013-04-25 16:40:00,44.3,23.8,30.08,SW,217,3.0,6.0,44,0.00,,SCT060,0.08,VWS V12.07,2013-04-25 21:40:00,
2013-04-25 16:42:00,44.2,20.8,30.08,West,260,0.0,6.0,39,0.00,,SCT060,0.08,VWS V12.07,2013-04-25 21:42:00,
2013-04-25 16:43:00,44.3,21.5,30.08,WSW,256,2.0,6.0,40,0.00,,SCT060,0.08,VWS V12.07,2013-04-25 21:43:00,
2013-04-25 16:45:00,44.3,22.1,30.08,WSW,240,5.0,6.0,41,0.00,,SCT060,0.08,VWS V12.07,2013-04-25 21:45:00,
2013-04-25 16:47:00,44.1,21.9,30.08,SSW,209,3.0,6.0,41,0.00,,SCT060,0.08,VWS V12.07,2013-04-25 21:47:00,
2013-04-25 16:48:00,44.3,22.1,30.08,SSW,207,3.0,6.0,41,0.00,,SCT060,0.08,VWS V12.07,2013-04-25 21:48:00,
2013-04-25 16:50:00,44.1,20.7,30.08,SW,222,0.0,5.0,39,0.00,,SCT060,0.08,VWS V12.07,2013-04-25 21:50:00,
2013-04-25 16:52:00,44.2,20.8,30.08,SSW,196,3.0,0.0,39,0.00,,SCT060,0.08,VWS V12.07,2013-04-25 21:52:00,
2013-04-25 16:53:00,44.2,20.2,30.08,SSW,198,0.0,6.0,38,0.00,,SCT060,0.08,VWS V12.07,2013-04-25 21:53:00,
2013-04-25 16:54:00,44.2,20.2,30.08,SSW,198,0.0,6.0,38,0.00,,SCT060,0.08,VWS V12.07,2013-04-25 21:54:00,
2013-04-25 16:56:00,44.2,20.2,30.08,SSW,193,1.0,6.0,38,0.00,,SCT060,0.08,VWS V12.07,2013-04-25 21:56:00,
2013-04-25 16:58:00,44.2,22.6,30.08,South,190,1.0,6.0,42,0.00,,SCT060,0.08,VWS V12.07,2013-04-25 21:58:00,
2013-04-25 16:59:00,44.2,22.0,30.08,South,176,3.0,4.0,41,0.00,,SCT060,0.08,VWS V12.07,2013-04-25 21:59:00,
2013-04-25 17:01:00,43.9,21.7,30.08,SSW,212,2.0,5.0,41,0.00,,SCT060,0.08,VWS V12.07,2013-04-25 22:01:00,
2013-04-25 17:03:00,43.6,21.5,30.08,West,264,4.0,5.0,41,0.00,,SCT060,0.08,VWS V12.07,2013-04-25 22:03:00,
2013-04-25 17:04:00,43.6,20.9,30.08,SSW,205,3.0,5.0,40,0.00,,SCT060,0.08,VWS V12.07,2013-04-25 22:04:00,
2013-04-25 17:07:00,43.8,22.8,30.08,SSW,204,2.0,5.0,43,0.00,,SCT060,0.08,VWS V12.07,2013-04-25 22:07:00,
2013-04-25 17:08:00,43.6,21.5,30.08,SSW,205,2.0,5.0,41,0.00,,SCT060,0.08,VWS V12.07,2013-04-25 22:08:00,
2013-04-25 17:09:00,43.9,22.3,30.08,SSW,204,0.0,3.0,42,0.00,,SCT060,0.08,VWS V12.07,2013-04-25 22:09:00,
2013-04-25 17:11:00,44.1,21.9,30.08,SSW,192,2.0,4.0,41,0.00,,SCT060,0.08,VWS V12.07,2013-04-25 22:11:00,
2013-04-25 17:12:00,44.1,22.5,30.08,SSW,192,3.0,4.0,42,0.00,,SCT060,0.08,VWS V12.07,2013-04-25 22:12:00,
2013-04-25 17:13:00,44.1,21.3,30.08,SW,224,2.0,6.0,40,0.00,,SCT060,0.08,VWS V12.07,2013-04-25 22:13:00,
2013-04-25 17:14:00,44.1,20.1,30.08,SSW,210,5.0,6.0,38,0.00,,SCT060,0.08,VWS V12.07,2013-04-25 22:14:00,
2013-04-25 17:16:00,44.1,19.5,30.08,SSW,211,6.0,7.0,37,0.00,,SCT060,0.08,VWS V12.07,2013-04-25 22:16:00,
2013-04-25 17:17:00,44.1,21.3,30.08,SSW,211,3.0,7.0,40,0.00,,SCT060,0.08,VWS V12.07,2013-04-25 22:17:00,
2013-04-25 17:19:00,43.8,21.6,30.08,SSW,200,5.0,7.0,41,0.00,,SCT060,0.08,VWS V12.07,2013-04-25 22:19:00,
2013-04-25 17:20:00,43.8,22.2,30.08,South,187,4.0,7.0,42,0.00,,SCT060,0.08,VWS V12.07,2013-04-25 22:20:00,
2013-04-25 17:21:00,43.6,22.6,30.08,SSW,195,1.0,7.0,43,0.00,,SCT060,0.08,VWS V12.07,2013-04-25 22:21:00,
2013-04-25 17:22:00,43.3,21.8,30.08,SSW,208,3.0,7.0,42,0.00,,SCT060,0.08,VWS V12.07,2013-04-25 22:22:00,
2013-04-25 17:24:00,43.2,22.8,30.08,SSW,213,2.0,7.0,44,0.00,,SCT060,0.08,VWS V12.07,2013-04-25 22:24:00,
2013-04-25 17:25:00,43.2,21.7,30.08,SSW,211,2.0,7.0,42,0.00,,SCT060,0.08,VWS V12.07,2013-04-25 22:25:00,
2013-04-25 17:26:00,43.1,21.0,30.08,SW,221,4.0,7.0,41,0.00,,SCT060,0.08,VWS V12.07,2013-04-25 22:26:00,
2013-04-25 17:27:00,43.1,21.0,30.08,SSW,210,3.0,7.0,41,0.00,,SCT060,0.08,VWS V12.07,2013-04-25 22:27:00,
2013-04-25 17:28:00,42.9,20.8,30.08,South,191,1.0,0.0,41,0.00,,SCT060,0.08,VWS V12.07,2013-04-25 22:28:00,
2013-04-25 17:29:00,42.9,20.8,30.09,SSW,205,3.0,6.0,41,0.00,,SCT060,0.08,VWS V12.07,2013-04-25 22:29:00,
2013-04-25 17:30:00,42.9,23.0,30.09,South,191,4.0,6.0,45,0.00,,SCT060,0.08,VWS V12.07,2013-04-25 22:30:00,
2013-04-25 17:31:00,42.8,21.9,30.09,SW,218,3.0,6.0,43,0.00,,SCT060,0.08,VWS V12.07,2013-04-25 22:31:00,
2013-04-25 17:32:00,42.8,21.9,30.09,SW,230,1.0,6.0,43,0.00,,SCT060,0.08,VWS V12.07,2013-04-25 22:32:00,
2013-04-25 17:33:00,42.8,23.0,30.09,SSW,203,2.0,6.0,45,0.00,,SCT060,0.08,VWS V12.07,2013-04-25 22:33:00,
2013-04-25 17:34:00,42.8,23.5,30.09,SSW,205,4.0,6.0,46,0.00,,CLR,0.08,VWS V12.07,2013-04-25 22:34:00,
2013-04-25 17:35:00,42.6,22.2,30.09,SSW,201,3.0,6.0,44,0.00,,CLR,0.08,VWS V12.07,2013-04-25 22:35:00,
2013-04-25 17:36:00,42.6,22.8,30.09,SSW,207,1.0,6.0,45,0.00,,CLR,0.08,VWS V12.07,2013-04-25 22:36:00,
2013-04-25 17:37:00,42.5,22.7,30.09,SSW,207,0.0,6.0,45,0.00,,CLR,0.08,VWS V12.07,2013-04-25 22:37:00,
2013-04-25 17:38:00,42.5,23.7,30.09,SSW,207,2.0,5.0,47,0.00,,CLR,0.08,VWS V12.07,2013-04-25 22:38:00,
2013-04-25 17:39:00,42.6,22.2,30.09,South,178,2.0,5.0,44,0.00,,CLR,0.08,VWS V12.07,2013-04-25 22:39:00,
2013-04-25 17:40:00,42.8,23.5,30.09,SSW,197,3.0,5.0,46,0.00,,CLR,0.08,VWS V12.07,2013-04-25 22:40:00,
2013-04-25 17:41:00,42.9,22.0,30.09,SSW,207,3.0,5.0,43,0.00,,CLR,0.08,VWS V12.07,2013-04-25 22:41:00,
2013-04-25 17:42:00,42.9,21.4,30.09,SSW,206,2.0,5.0,42,0.00,,CLR,0.08,VWS V12.07,2013-04-25 22:42:00,
2013-04-25 17:44:00,42.9,24.1,30.09,SSW,212,2.0,5.0,47,0.00,,CLR,0.08,VWS V12.07,2013-04-25 22:44:00,
2013-04-25 17:46:00,42.6,24.3,30.09,SSW,213,1.0,5.0,48,0.00,,CLR,0.08,VWS V12.07,2013-04-25 22:46:00,
2013-04-25 17:47:00,42.5,24.7,30.09,SSW,195,3.0,5.0,49,0.00,,CLR,0.08,VWS V12.07,2013-04-25 22:47:00,
2013-04-25 17:49:00,42.3,24.0,30.09,SSW,195,2.0,3.0,48,0.00,,CLR,0.08,VWS V12.07,2013-04-25 22:49:00,
2013-04-25 17:50:00,42.2,24.9,30.09,SSW,209,3.0,3.0,50,0.00,,CLR,0.08,VWS V12.07,2013-04-25 22:50:00,
2013-04-25 17:52:00,42.1,24.3,30.09,SSW,197,4.0,4.0,49,0.00,,CLR,0.08,VWS V12.07,2013-04-25 22:52:00,
2013-04-25 17:53:00,42.1,24.8,30.09,SSW,207,2.0,9.0,50,0.00,,CLR,0.08,VWS V12.07,2013-04-25 22:53:00,
2013-04-25 17:54:00,42.2,21.3,30.09,SSW,198,1.0,9.0,43,0.00,,CLR,0.08,VWS V12.07,2013-04-25 22:54:00,
2013-04-25 17:55:00,42.5,22.1,30.09,SSE,167,2.0,9.0,44,0.00,,CLR,0.08,VWS V12.07,2013-04-25 22:55:00,
2013-04-25 17:57:00,42.5,23.2,30.09,SSW,203,3.0,9.0,46,0.00,,CLR,0.08,VWS V12.07,2013-04-25 22:57:00,
2013-04-25 17:58:00,42.5,23.7,30.09,SSW,203,1.0,4.0,47,0.00,,CLR,0.08,VWS V12.07,2013-04-25 22:58:00,
2013-04-25 17:59:00,42.3,25.0,30.09,SSW,209,3.0,4.0,50,0.00,,CLR,0.08,VWS V12.07,2013-04-25 22:59:00,
2013-04-25 18:00:00,42.3,25.0,30.09,SSW,209,2.0,4.0,50,0.00,,CLR,0.08,VWS V12.07,2013-04-25 23:00:00,
2013-04-25 18:02:00,42.1,25.8,30.09,SSW,208,0.0,4.0,52,0.00,,CLR,0.08,VWS V12.07,2013-04-25 23:02:00,
2013-04-25 18:03:00,41.9,24.6,30.09,SSW,208,1.0,4.0,50,0.00,,CLR,0.08,VWS V12.07,2013-04-25 23:03:00,
2013-04-25 18:04:00,41.9,26.0,30.09,SSW,208,2.0,4.0,53,0.00,,CLR,0.08,VWS V12.07,2013-04-25 23:04:00,
2013-04-25 18:05:00,41.9,26.5,30.09,South,183,3.0,4.0,54,0.00,,CLR,0.08,VWS V12.07,2013-04-25 23:05:00,
2013-04-25 18:07:00,41.5,24.7,30.09,SSW,207,2.0,5.0,51,0.00,,CLR,0.08,VWS V12.07,2013-04-25 23:07:00,
2013-04-25 18:08:00,41.5,25.7,30.09,SSW,210,5.0,5.0,53,0.00,,CLR,0.08,VWS V12.07,2013-04-25 23:08:00,
2013-04-25 18:09:00,41.3,24.5,30.09,South,191,3.0,6.0,51,0.00,,CLR,0.08,VWS V12.07,2013-04-25 23:09:00,
2013-04-25 18:10:00,41.2,25.4,30.09,South,176,1.0,6.0,53,0.00,,CLR,0.08,VWS V12.07,2013-04-25 23:10:00,
2013-04-25 18:11:00,41.2,26.7,30.09,South,176,1.0,6.0,56,0.00,,CLR,0.08,VWS V12.07,2013-04-25 23:11:00,
2013-04-25 18:13:00,40.9,26.9,30.09,South,176,0.0,6.0,57,0.00,,CLR,0.08,VWS V12.07,2013-04-25 23:13:00,
2013-04-25 18:15:00,40.8,27.2,30.10,South,177,1.0,6.0,58,0.00,,CLR,0.08,VWS V12.07,2013-04-25 23:15:00,
2013-04-25 18:16:00,40.6,26.1,30.10,South,177,2.0,6.0,56,0.00,,CLR,0.08,VWS V12.07,2013-04-25 23:16:00,
2013-04-25 18:18:00,40.6,25.3,30.10,SW,229,3.0,6.0,54,0.00,,CLR,0.08,VWS V12.07,2013-04-25 23:18:00,
2013-04-25 18:20:00,40.6,25.3,30.10,SW,231,0.0,6.0,54,0.00,,CLR,0.08,VWS V12.07,2013-04-25 23:20:00,
2013-04-25 18:21:00,40.6,25.3,30.10,SW,231,0.0,6.0,54,0.00,,CLR,0.08,VWS V12.07,2013-04-25 23:21:00,
2013-04-25 18:23:00,40.8,25.0,30.10,SW,231,1.0,6.0,53,0.00,,CLR,0.08,VWS V12.07,2013-04-25 23:23:00,
2013-04-25 18:25:00,40.9,25.5,30.10,SW,231,1.0,6.0,54,0.00,,CLR,0.08,VWS V12.07,2013-04-25 23:25:00,
2013-04-25 18:26:00,41.1,23.4,30.10,SW,227,2.0,6.0,49,0.00,,CLR,0.08,VWS V12.07,2013-04-25 23:26:00,
2013-04-25 18:27:00,41.2,23.0,30.10,SW,227,2.0,6.0,48,0.00,,CLR,0.08,VWS V12.07,2013-04-25 23:27:00,
2013-04-25 18:29:00,41.6,23.4,30.10,SSW,199,3.0,5.0,48,0.00,,CLR,0.08,VWS V12.07,2013-04-25 23:29:00,
2013-04-25 18:31:00,41.6,24.4,30.10,SSW,207,3.0,5.0,50,0.00,,CLR,0.08,VWS V12.07,2013-04-25 23:31:00,
2013-04-25 18:32:00,41.6,24.8,30.10,SSW,213,2.0,5.0,51,0.00,,CLR,0.08,VWS V12.07,2013-04-25 23:32:00,
2013-04-25 18:34:00,41.2,24.9,30.10,WSW,237,5.0,5.0,52,0.00,,CLR,0.08,VWS V12.07,2013-04-25 23:34:00,
2013-04-25 18:36:00,40.8,24.5,30.10,SW,218,2.0,5.0,52,0.00,,SCT060,0.08,VWS V12.07,2013-04-25 23:36:00,
2013-04-25 18:37:00,40.6,25.7,30.10,SW,217,1.0,5.0,55,0.00,,SCT060,0.08,VWS V12.07,2013-04-25 23:37:00,
2013-04-25 18:38:00,40.5,25.2,30.10,SW,216,1.0,5.0,54,0.00,,SCT060,0.08,VWS V12.07,2013-04-25 23:38:00,
2013-04-25 18:39:00,40.2,25.3,30.10,SW,214,3.0,4.0,55,0.00,,SCT060,0.08,VWS V12.07,2013-04-25 23:39:00,
2013-04-25 18:41:00,40.1,24.8,30.10,SSW,209,2.0,4.0,54,0.00,,SCT060,0.08,VWS V12.07,2013-04-25 23:41:00,
2013-04-25 18:42:00,40.1,24.8,30.10,SSW,209,2.0,4.0,54,0.00,,SCT060,0.08,VWS V12.07,2013-04-25 23:42:00,
2013-04-25 18:43:00,39.9,25.9,30.10,SSW,209,2.0,4.0,57,0.00,,SCT060,0.08,VWS V12.07,2013-04-25 23:43:00,
2013-04-25 18:44:00,39.8,26.2,30.11,SSW,209,1.0,4.0,58,0.00,,SCT060,0.08,VWS V12.07,2013-04-25 23:44:00,
2013-04-25 18:46:00,39.6,26.5,30.11,SSW,209,2.0,4.0,59,0.00,,SCT060,0.08,VWS V12.07,2013-04-25 23:46:00,
2013-04-25 18:47:00,39.5,26.4,30.11,SSW,209,1.0,4.0,59,0.00,,SCT060,0.08,VWS V12.07,2013-04-25 23:47:00,
2013-04-25 18:48:00,39.8,26.2,30.11,SSW,209,0.0,4.0,58,0.00,,BKN060,0.08,VWS V12.07,2013-04-25 23:48:00,
2013-04-25 18:50:00,39.2,26.5,30.11,SSW,205,1.0,3.0,60,0.00,,BKN060,0.08,VWS V12.07,2013-04-25 23:50:00,
2013-04-25 18:52:00,39.3,24.9,30.11,SSW,210,2.0,5.0,56,0.00,,BKN060,0.08,VWS V12.07,2013-04-25 23:52:00,
2013-04-25 18:53:00,39.3,25.4,30.11,SSW,210,2.0,5.0,57,0.00,,BKN060,0.08,VWS V12.07,2013-04-25 23:53:00,
2013-04-25 18:56:00,39.3,25.8,30.11,SSW,210,1.0,5.0,58,0.00,,BKN060,0.08,VWS V12.07,2013-04-25 23:56:00,
2013-04-25 18:57:00,39.3,25.8,30.11,SSW,210,1.0,5.0,58,0.00,,BKN060,0.08,VWS V12.07,2013-04-25 23:57:00,
2013-04-25 18:58:00,39.3,25.8,30.11,SSW,210,1.0,5.0,58,0.00,,BKN060,0.08,VWS V12.07,2013-04-25 23:58:00,
2013-04-25 18:59:00,39.3,25.8,30.11,SSW,210,2.0,3.0,58,0.00,,BKN060,0.08,VWS V12.07,2013-04-25 23:59:00,
2013-04-25 19:01:00,39.2,26.1,30.11,SSW,210,1.0,3.0,59,0.00,,BKN060,0.08,VWS V12.07,2013-04-26 00:01:00,
2013-04-25 19:02:00,39.2,26.1,30.11,SSW,210,1.0,3.0,59,0.00,,BKN060,0.08,VWS V12.07,2013-04-26 00:02:00,
2013-04-25 19:03:00,39.1,26.4,30.11,SSW,210,2.0,3.0,60,0.00,,BKN060,0.08,VWS V12.07,2013-04-26 00:03:00,
2013-04-25 19:04:00,38.9,25.8,30.11,SSW,210,0.0,3.0,59,0.00,,BKN060,0.08,VWS V12.07,2013-04-26 00:04:00,
2013-04-25 19:05:00,38.9,26.2,30.11,SSW,210,1.0,3.0,60,0.00,,BKN060,0.08,VWS V12.07,2013-04-26 00:05:00,
2013-04-25 19:07:00,38.5,26.2,30.11,SSW,210,2.0,3.0,61,0.00,,BKN060,0.08,VWS V12.07,2013-04-26 00:07:00,
2013-04-25 19:09:00,38.3,26.0,30.11,SSW,210,2.0,2.0,61,0.00,,BKN060,0.08,VWS V12.07,2013-04-26 00:09:00,
2013-04-25 19:10:00,38.2,26.3,30.11,SSW,210,1.0,3.0,62,0.00,,BKN060,0.08,VWS V12.07,2013-04-26 00:10:00,
2013-04-25 19:12:00,38.2,26.0,30.11,SSW,210,2.0,3.0,61,0.00,,SCT060,0.08,VWS V12.07,2013-04-26 00:12:00,
2013-04-25 19:13:00,38.0,25.8,30.11,SSW,210,2.0,3.0,61,0.00,,SCT060,0.08,VWS V12.07,2013-04-26 00:13:00,
2013-04-25 19:14:00,38.2,26.0,30.11,SSW,210,2.0,3.0,61,0.00,,SCT060,0.08,VWS V12.07,2013-04-26 00:14:00,
2013-04-25 19:15:00,38.2,26.0,30.11,SSW,210,2.0,3.0,61,0.00,,SCT060,0.08,VWS V12.07,2013-04-26 00:15:00,
2013-04-25 19:18:00,38.0,25.8,30.11,SSW,210,2.0,3.0,61,0.00,,SCT060,0.08,VWS V12.07,2013-04-26 00:18:00,
2013-04-25 19:19:00,37.9,26.1,30.11,SSW,210,1.0,3.0,62,0.00,,SCT060,0.08,VWS V12.07,2013-04-26 00:19:00,
2013-04-25 19:20:00,37.9,26.1,30.11,SSW,210,0.0,3.0,62,0.00,,SCT060,0.08,VWS V12.07,2013-04-26 00:20:00,
2013-04-25 19:23:00,37.9,25.7,30.11,SSW,210,2.0,3.0,61,0.00,,SCT060,0.08,VWS V12.07,2013-04-26 00:23:00,
2013-04-25 19:24:00,37.9,25.7,30.11,SSW,210,3.0,3.0,61,0.00,,SCT060,0.08,VWS V12.07,2013-04-26 00:24:00,
2013-04-25 19:25:00,38.0,25.0,30.11,SW,217,1.0,4.0,59,0.00,,SCT060,0.08,VWS V12.07,2013-04-26 00:25:00,
2013-04-25 19:28:00,37.9,26.1,30.11,SW,217,1.0,4.0,62,0.00,,SCT060,0.08,VWS V12.07,2013-04-26 00:28:00,
2013-04-25 19:29:00,37.8,26.0,30.11,SW,217,2.0,3.0,62,0.00,,SCT060,0.08,VWS V12.07,2013-04-26 00:29:00,
2013-04-25 19:30:00,37.8,25.6,30.11,SW,217,2.0,3.0,61,0.00,,SCT060,0.08,VWS V12.07,2013-04-26 00:30:00,
2013-04-25 19:33:00,37.8,25.2,30.11,SW,226,2.0,3.0,60,0.00,,SCT060,0.08,VWS V12.07,2013-04-26 00:33:00,
2013-04-25 19:34:00,37.8,25.2,30.11,SW,226,1.0,3.0,60,0.00,,SCT060,0.08,VWS V12.07,2013-04-26 00:34:00,
2013-04-25 19:35:00,37.8,24.8,30.11,SW,226,2.0,3.0,59,0.00,,SCT060,0.08,VWS V12.07,2013-04-26 00:35:00,
2013-04-25 19:38:00,37.8,25.2,30.11,SSW,212,2.0,4.0,60,0.00,,SCT060,0.08,VWS V12.07,2013-04-26 00:38:00,
2013-04-25 19:39:00,37.9,25.3,30.11,SW,226,1.0,4.0,60,0.00,,SCT060,0.08,VWS V12.07,2013-04-26 00:39:00,
2013-04-25 19:41:00,37.9,24.9,30.11,SW,224,3.0,4.0,59,0.00,,SCT060,0.08,VWS V12.07,2013-04-26 00:41:00,
2013-04-25 19:44:00,37.8,25.2,30.12,SW,236,0.0,4.0,60,0.00,,SCT060,0.08,VWS V12.07,2013-04-26 00:44:00,
2013-04-25 19:45:00,37.6,25.8,30.12,SW,231,3.0,4.0,62,0.00,,SCT060,0.08,VWS V12.07,2013-04-26 00:45:00,
2013-04-25 19:46:00,37.5,25.7,30.12,SW,231,1.0,4.0,62,0.00,,SCT060,0.08,VWS V12.07,2013-04-26 00:46:00,
2013-04-25 19:47:00,37.3,25.1,30.12,SW,231,1.0,4.0,61,0.00,,SCT060,0.08,VWS V12.07,2013-04-26 00:47:00,
2013-04-25 19:49:00,37.2,25.8,30.12,SW,231,1.0,4.0,63,0.00,,CLR,0.08,VWS V12.07,2013-04-26 00:49:00,
2013-04-25 19:50:00,37.0,25.6,30.12,SW,231,1.0,4.0,63,0.00,,CLR,0.08,VWS V12.07,2013-04-26 00:50:00,
2013-04-25 19:51:00,36.9,25.9,30.12,SW,231,1.0,4.0,64,0.00,,CLR,0.08,VWS V12.07,2013-04-26 00:51:00,
2013-04-25 19:52:00,36.9,25.9,30.12,SW,231,1.0,0.0,64,0.00,,CLR,0.08,VWS V12.07,2013-04-26 00:52:00,
2013-04-25 19:54:00,36.6,26.0,30.12,SW,231,2.0,4.0,65,0.00,,CLR,0.08,VWS V12.07,2013-04-26 00:54:00,
2013-04-25 19:55:00,36.6,25.6,30.12,SW,231,2.0,4.0,64,0.00,,CLR,0.08,VWS V12.07,2013-04-26 00:55:00,
2013-04-25 19:56:00,36.5,25.9,30.12,SW,231,2.0,4.0,65,0.00,,CLR,0.08,VWS V12.07,2013-04-26 00:56:00,
2013-04-25 19:57:00,36.5,25.9,30.12,SW,231,1.0,4.0,65,0.00,,CLR,0.08,VWS V12.07,2013-04-26 00:57:00,
2013-04-25 19:58:00,36.6,26.0,30.12,SW,231,2.0,4.0,65,0.00,,CLR,0.08,VWS V12.07,2013-04-26 00:58:00,
2013-04-25 19:59:00,36.3,25.7,30.12,SW,231,1.0,2.0,65,0.00,,CLR,0.08,VWS V12.07,2013-04-26 00:59:00,
2013-04-25 20:01:00,36.2,25.6,30.12,SW,231,1.0,2.0,65,0.00,,CLR,0.08,VWS V12.07,2013-04-26 01:01:00,
2013-04-25 20:03:00,36.2,25.6,30.12,SW,231,2.0,2.0,65,0.00,,CLR,0.08,VWS V12.07,2013-04-26 01:03:00,
2013-04-25 20:05:00,36.0,25.8,30.12,SW,231,0.0,2.0,66,0.00,,SCT060,0.08,VWS V12.07,2013-04-26 01:05:00,
2013-04-25 20:06:00,35.9,25.7,30.12,SW,231,2.0,2.0,66,0.00,,SCT060,0.08,VWS V12.07,2013-04-26 01:06:00,
2013-04-25 20:07:00,35.9,25.7,30.12,SW,231,1.0,2.0,66,0.00,,SCT060,0.08,VWS V12.07,2013-04-26 01:07:00,
2013-04-25 20:08:00,35.8,25.6,30.12,SW,231,1.0,2.0,66,0.00,,CLR,0.08,VWS V12.07,2013-04-26 01:08:00,
2013-04-25 20:09:00,35.8,25.6,30.12,SW,231,1.0,2.0,66,0.00,,CLR,0.08,VWS V12.07,2013-04-26 01:09:00,
2013-04-25 20:10:00,35.8,25.6,30.12,SW,231,1.0,2.0,66,0.00,,CLR,0.08,VWS V12.07,2013-04-26 01:10:00,
2013-04-25 20:12:00,35.6,25.4,30.12,SW,231,1.0,2.0,66,0.00,,CLR,0.08,VWS V12.07,2013-04-26 01:12:00,
2013-04-25 20:13:00,35.5,25.6,30.12,SW,231,1.0,2.0,67,0.00,,CLR,0.08,VWS V12.07,2013-04-26 01:13:00,
2013-04-25 20:15:00,35.5,25.6,30.12,SW,231,2.0,2.0,67,0.00,,CLR,0.08,VWS V12.07,2013-04-26 01:15:00,
2013-04-25 20:17:00,35.5,25.3,30.12,SW,231,0.0,2.0,66,0.00,,CLR,0.08,VWS V12.07,2013-04-26 01:17:00,
2013-04-25 20:18:00,35.3,25.1,30.12,SW,231,1.0,2.0,66,0.00,,CLR,0.08,VWS V12.07,2013-04-26 01:18:00,
2013-04-25 20:20:00,35.5,25.3,30.12,SW,231,0.0,3.0,66,0.00,,CLR,0.08,VWS V12.07,2013-04-26 01:20:00,
2013-04-25 20:23:00,35.5,24.9,30.12,SW,231,1.0,3.0,65,0.00,,CLR,0.08,VWS V12.07,2013-04-26 01:23:00,
2013-04-25 20:25:00,35.6,25.0,30.12,SW,231,1.0,3.0,65,0.00,,CLR,0.08,VWS V12.07,2013-04-26 01:25:00,
2013-04-25 20:28:00,35.8,24.8,30.12,SW,231,1.0,3.0,64,0.00,,CLR,0.08,VWS V12.07,2013-04-26 01:28:00,
2013-04-25 20:30:00,35.8,25.2,30.13,SW,231,1.0,2.0,65,0.00,,CLR,0.08,VWS V12.07,2013-04-26 01:30:00,
2013-04-25 20:31:00,35.8,24.8,30.13,SW,231,1.0,2.0,64,0.00,,CLR,0.08,VWS V12.07,2013-04-26 01:31:00,
2013-04-25 20:33:00,35.6,25.0,30.13,SW,231,1.0,3.0,65,0.00,,CLR,0.08,VWS V12.07,2013-04-26 01:33:00,
2013-04-25 20:34:00,35.6,25.0,30.13,SW,231,1.0,3.0,65,0.00,,CLR,0.08,VWS V12.07,2013-04-26 01:34:00,
2013-04-25 20:36:00,35.3,25.1,30.13,SW,231,1.0,3.0,66,0.00,,CLR,0.08,VWS V12.07,2013-04-26 01:36:00,
2013-04-25 20:37:00,35.3,25.1,30.13,SW,231,0.0,3.0,66,0.00,,CLR,0.08,VWS V12.07,2013-04-26 01:37:00,
2013-04-25 20:38:00,35.2,25.0,30.13,SW,231,2.0,3.0,66,0.00,,CLR,0.08,VWS V12.07,2013-04-26 01:38:00,
2013-04-25 20:39:00,35.2,24.6,30.13,SW,231,2.0,3.0,65,0.00,,CLR,0.08,VWS V12.07,2013-04-26 01:39:00,
2013-04-25 20:41:00,35.0,24.4,30.13,SW,231,1.0,3.0,65,0.00,,CLR,0.08,VWS V12.07,2013-04-26 01:41:00,
2013-04-25 20:42:00,35.2,24.3,30.13,SW,231,2.0,3.0,64,0.00,,CLR,0.08,VWS V12.07,2013-04-26 01:42:00,
2013-04-25 20:43:00,35.2,24.3,30.13,SW,231,2.0,3.0,64,0.00,,CLR,0.08,VWS V12.07,2013-04-26 01:43:00,
2013-04-25 20:44:00,35.2,24.3,30.14,SW,230,1.0,3.0,64,0.00,,CLR,0.08,VWS V12.07,2013-04-26 01:44:00,
2013-04-25 20:46:00,35.2,24.3,30.14,SW,230,2.0,3.0,64,0.00,,CLR,0.08,VWS V12.07,2013-04-26 01:46:00,
2013-04-25 20:48:00,35.3,24.4,30.14,SW,230,1.0,3.0,64,0.00,,CLR,0.08,VWS V12.07,2013-04-26 01:48:00,
2013-04-25 20:49:00,35.5,24.5,30.14,SW,230,0.0,3.0,64,0.00,,CLR,0.08,VWS V12.07,2013-04-26 01:49:00,
2013-04-25 20:50:00,35.5,24.5,30.14,SW,230,0.0,3.0,64,0.00,,CLR,0.08,VWS V12.07,2013-04-26 01:50:00,
2013-04-25 20:51:00,35.3,24.7,30.14,SW,231,1.0,3.0,65,0.00,,CLR,0.08,VWS V12.07,2013-04-26 01:51:00,
2013-04-25 20:53:00,35.2,25.0,30.14,SW,231,1.0,3.0,66,0.00,,CLR,0.08,VWS V12.07,2013-04-26 01:53:00,
2013-04-25 20:54:00,35.0,24.8,30.14,SW,231,1.0,3.0,66,0.00,,CLR,0.08,VWS V12.07,2013-04-26 01:54:00,
2013-04-25 20:55:00,35.0,24.8,30.14,SW,231,1.0,3.0,66,0.00,,CLR,0.08,VWS V12.07,2013-04-26 01:55:00,
2013-04-25 20:58:00,34.7,24.9,30.14,SW,231,1.0,2.0,67,0.00,,CLR,0.08,VWS V12.07,2013-04-26 01:58:00,
2013-04-25 21:00:00,34.6,24.8,30.14,SW,231,0.0,2.0,67,0.00,,CLR,0.08,VWS V12.07,2013-04-26 02:00:00,
2013-04-25 21:03:00,34.1,25.0,30.14,SW,231,0.0,2.0,69,0.00,,CLR,0.08,VWS V12.07,2013-04-26 02:03:00,
2013-04-25 21:05:00,34.0,24.9,30.14,SW,231,0.0,2.0,69,0.00,,CLR,0.08,VWS V12.07,2013-04-26 02:05:00,
2013-04-25 21:08:00,33.7,25.0,30.14,SW,231,0.0,2.0,70,0.00,,CLR,0.08,VWS V12.07,2013-04-26 02:08:00,
2013-04-25 21:09:00,33.7,25.0,30.14,SW,231,1.0,2.0,70,0.00,,CLR,0.08,VWS V12.07,2013-04-26 02:09:00,
2013-04-25 21:10:00,33.7,25.0,30.14,SW,231,1.0,2.0,70,0.00,,CLR,0.08,VWS V12.07,2013-04-26 02:10:00,
2013-04-25 21:14:00,33.5,24.8,30.14,SW,231,1.0,2.0,70,0.00,,CLR,0.08,VWS V12.07,2013-04-26 02:14:00,
2013-04-25 21:15:00,33.4,24.7,30.14,SW,231,0.0,2.0,70,0.00,,CLR,0.08,VWS V12.07,2013-04-26 02:15:00,
2013-04-25 21:16:00,33.4,24.7,30.14,SW,231,1.0,2.0,70,0.00,,CLR,0.08,VWS V12.07,2013-04-26 02:16:00,
2013-04-25 21:19:00,33.4,24.7,30.14,SW,231,1.0,2.0,70,0.00,,CLR,0.08,VWS V12.07,2013-04-26 02:19:00,
2013-04-25 21:20:00,33.4,24.7,30.14,SW,231,0.0,2.0,70,0.00,,CLR,0.08,VWS V12.07,2013-04-26 02:20:00,
2013-04-25 21:21:00,33.4,24.7,30.14,SW,231,1.0,2.0,70,0.00,,CLR,0.08,VWS V12.07,2013-04-26 02:21:00,
2013-04-25 21:24:00,33.1,25.1,30.14,SW,231,1.0,2.0,72,0.00,,CLR,0.08,VWS V12.07,2013-04-26 02:24:00,
2013-04-25 21:25:00,33.1,25.1,30.14,SW,231,1.0,2.0,72,0.00,,CLR,0.08,VWS V12.07,2013-04-26 02:25:00,
2013-04-25 21:26:00,33.1,25.1,30.14,SW,231,1.0,2.0,72,0.00,,CLR,0.08,VWS V12.07,2013-04-26 02:26:00,
2013-04-25 21:29:00,32.9,24.9,30.15,SW,231,1.0,2.0,72,0.00,,CLR,0.08,VWS V12.07,2013-04-26 02:29:00,
2013-04-25 21:30:00,32.8,24.8,30.15,SW,231,0.0,2.0,72,0.00,,CLR,0.08,VWS V12.07,2013-04-26 02:30:00,
2013-04-25 21:31:00,32.8,24.8,30.15,SW,231,0.0,2.0,72,0.00,,CLR,0.08,VWS V12.07,2013-04-26 02:31:00,
2013-04-25 21:32:00,32.8,25.1,30.15,SW,231,0.0,2.0,73,0.00,,CLR,0.08,VWS V12.07,2013-04-26 02:32:00,
2013-04-25 21:34:00,32.7,25.0,30.15,SW,231,0.0,2.0,73,0.00,,CLR,0.08,VWS V12.07,2013-04-26 02:34:00,
2013-04-25 21:36:00,32.7,25.0,30.15,SW,231,0.0,2.0,73,0.00,,CLR,0.08,VWS V12.07,2013-04-26 02:36:00,
2013-04-25 21:37:00,32.5,24.8,30.15,SW,231,0.0,2.0,73,0.00,,CLR,0.08,VWS V12.07,2013-04-26 02:37:00,
2013-04-25 21:40:00,32.4,24.7,30.15,SW,231,0.0,1.0,73,0.00,,CLR,0.08,VWS V12.07,2013-04-26 02:40:00,
2013-04-25 21:41:00,32.4,24.7,30.15,SW,231,0.0,1.0,73,0.00,,CLR,0.08,VWS V12.07,2013-04-26 02:41:00,
2013-04-25 21:42:00,32.4,24.7,30.15,SW,231,0.0,1.0,73,0.00,,CLR,0.08,VWS V12.07,2013-04-26 02:42:00,
2013-04-25 21:45:00,32.4,24.4,30.16,SW,231,0.0,1.0,72,0.00,,CLR,0.08,VWS V12.07,2013-04-26 02:45:00,
2013-04-25 21:46:00,32.5,24.8,30.16,SW,231,0.0,1.0,73,0.00,,CLR,0.08,VWS V12.07,2013-04-26 02:46:00,
2013-04-25 21:47:00,32.4,24.7,30.16,SW,231,0.0,1.0,73,0.00,,CLR,0.08,VWS V12.07,2013-04-26 02:47:00,
2013-04-25 21:50:00,32.4,24.7,30.16,SW,231,0.0,0.0,73,0.00,,CLR,0.08,VWS V12.07,2013-04-26 02:50:00,
2013-04-25 21:51:00,32.4,24.7,30.16,SW,231,0.0,0.0,73,0.00,,CLR,0.08,VWS V12.07,2013-04-26 02:51:00,
2013-04-25 21:52:00,32.4,24.4,30.16,SW,231,0.0,0.0,72,0.00,,CLR,0.08,VWS V12.07,2013-04-26 02:52:00,
2013-04-25 21:56:00,32.5,24.2,30.16,SW,231,0.0,0.0,71,0.00,,CLR,0.08,VWS V12.07,2013-04-26 02:56:00,
2013-04-25 21:57:00,32.5,24.2,30.16,SW,231,0.0,0.0,71,0.00,,CLR,0.08,VWS V12.07,2013-04-26 02:57:00,
2013-04-25 21:58:00,32.5,24.2,30.16,SW,231,0.0,0.0,71,0.00,,CLR,0.08,VWS V12.07,2013-04-26 02:58:00,
2013-04-25 22:01:00,32.8,24.1,30.15,SW,231,0.0,0.0,70,0.00,,CLR,0.08,VWS V12.07,2013-04-26 03:01:00,
2013-04-25 22:02:00,32.9,24.2,30.15,SW,231,1.0,1.0,70,0.00,,CLR,0.08,VWS V12.07,2013-04-26 03:02:00,
2013-04-25 22:03:00,32.9,24.2,30.15,SW,231,1.0,1.0,70,0.00,,CLR,0.08,VWS V12.07,2013-04-26 03:03:00,
2013-04-25 22:07:00,33.4,24.3,30.15,SW,231,0.0,1.0,69,0.00,,CLR,0.08,VWS V12.07,2013-04-26 03:07:00,
2013-04-25 22:08:00,33.4,24.3,30.15,SW,231,0.0,1.0,69,0.00,,CLR,0.08,VWS V12.07,2013-04-26 03:08:00,
2013-04-25 22:09:00,33.4,24.3,30.15,SW,231,0.0,1.0,69,0.00,,CLR,0.08,VWS V12.07,2013-04-26 03:09:00,
2013-04-25 22:12:00,33.4,24.0,30.15,SW,231,0.0,1.0,68,0.00,,CLR,0.08,VWS V12.07,2013-04-26 03:12:00,
2013-04-25 22:13:00,33.4,24.0,30.15,SW,231,0.0,1.0,68,0.00,,CLR,0.08,VWS V12.07,2013-04-26 03:13:00,
2013-04-25 22:14:00,33.4,24.0,30.16,SW,231,0.0,1.0,68,0.00,,CLR,0.08,VWS V12.07,2013-04-26 03:14:00,
2013-04-25 22:17:00,33.2,23.8,30.16,SW,231,0.0,1.0,68,0.00,,CLR,0.08,VWS V12.07,2013-04-26 03:17:00,
2013-04-25 22:18:00,33.2,23.8,30.16,SW,231,0.0,1.0,68,0.00,,CLR,0.08,VWS V12.07,2013-04-26 03:18:00,
2013-04-25 22:19:00,33.2,23.8,30.16,SW,231,0.0,0.0,68,0.00,,CLR,0.08,VWS V12.07,2013-04-26 03:19:00,
2013-04-25 22:22:00,33.1,23.7,30.16,SW,231,0.0,0.0,68,0.00,,CLR,0.08,VWS V12.07,2013-04-26 03:22:00,
2013-04-25 22:23:00,33.1,23.7,30.16,SW,231,0.0,0.0,68,0.00,,CLR,0.08,VWS V12.07,2013-04-26 03:23:00,
2013-04-25 22:24:00,33.1,23.7,30.16,SW,231,0.0,0.0,68,0.00,,CLR,0.08,VWS V12.07,2013-04-26 03:24:00,
2013-04-25 22:29:00,33.2,23.8,30.15,SW,231,0.0,0.0,68,0.00,,CLR,0.08,VWS V12.07,2013-04-26 03:29:00,
2013-04-25 22:30:00,33.2,23.8,30.15,SW,231,0.0,0.0,68,0.00,,CLR,0.08,VWS V12.07,2013-04-26 03:30:00,
2013-04-25 22:34:00,33.2,23.8,30.15,SW,231,0.0,0.0,68,0.00,,CLR,0.08,VWS V12.07,2013-04-26 03:34:00,
2013-04-25 22:35:00,33.2,23.8,30.15,SW,231,0.0,0.0,68,0.00,,CLR,0.08,VWS V12.07,2013-04-26 03:35:00,
2013-04-25 22:39:00,33.4,24.0,30.15,SW,231,0.0,0.0,68,0.00,,CLR,0.08,VWS V12.07,2013-04-26 03:39:00,
2013-04-25 22:40:00,33.4,24.0,30.15,SW,231,0.0,0.0,68,0.00,,CLR,0.08,VWS V12.07,2013-04-26 03:40:00,
2013-04-25 22:44:00,33.2,23.8,30.15,SW,231,0.0,0.0,68,0.00,,CLR,0.08,VWS V12.07,2013-04-26 03:44:00,
2013-04-25 22:45:00,33.2,23.8,30.15,SW,231,0.0,0.0,68,0.00,,CLR,0.08,VWS V12.07,2013-04-26 03:45:00,
2013-04-25 22:50:00,33.2,23.8,30.15,SW,231,0.0,0.0,68,0.00,,CLR,0.08,VWS V12.07,2013-04-26 03:50:00,
2013-04-25 22:51:00,33.2,23.8,30.15,SW,231,0.0,0.0,68,0.00,,CLR,0.08,VWS V12.07,2013-04-26 03:51:00,
2013-04-25 22:55:00,33.1,23.7,30.15,SW,231,0.0,0.0,68,0.00,,CLR,0.08,VWS V12.07,2013-04-26 03:55:00,
2013-04-25 22:56:00,33.1,23.7,30.15,SW,231,0.0,0.0,68,0.00,,CLR,0.08,VWS V12.07,2013-04-26 03:56:00,
2013-04-25 22:57:00,33.1,23.7,30.15,SW,231,0.0,0.0,68,0.00,,CLR,0.08,VWS V12.07,2013-04-26 03:57:00,
2013-04-25 23:00:00,33.1,23.7,30.15,SW,231,0.0,0.0,68,0.00,,CLR,0.08,VWS V12.07,2013-04-26 04:00:00,
2013-04-25 23:01:00,33.1,23.7,30.15,SW,231,0.0,0.0,68,0.00,,CLR,0.08,VWS V12.07,2013-04-26 04:01:00,
2013-04-25 23:06:00,33.1,24.0,30.15,SW,231,0.0,0.0,69,0.00,,CLR,0.08,VWS V12.07,2013-04-26 04:06:00,
2013-04-25 23:07:00,32.9,23.9,30.15,SW,231,0.0,0.0,69,0.00,,CLR,0.08,VWS V12.07,2013-04-26 04:07:00,
2013-04-25 23:11:00,32.9,23.9,30.15,SW,231,0.0,0.0,69,0.00,,CLR,0.08,VWS V12.07,2013-04-26 04:11:00,
2013-04-25 23:12:00,32.8,23.8,30.15,SW,231,0.0,0.0,69,0.00,,CLR,0.08,VWS V12.07,2013-04-26 04:12:00,
2013-04-25 23:16:00,32.8,23.8,30.15,SW,231,0.0,0.0,69,0.00,,CLR,0.08,VWS V12.07,2013-04-26 04:16:00,
2013-04-25 23:17:00,32.8,23.8,30.15,SW,231,0.0,0.0,69,0.00,,CLR,0.08,VWS V12.07,2013-04-26 04:17:00,
2013-04-25 23:21:00,32.5,23.8,30.15,SW,231,0.0,0.0,70,0.00,,CLR,0.08,VWS V12.07,2013-04-26 04:21:00,
2013-04-25 23:22:00,32.5,23.8,30.15,SW,231,0.0,0.0,70,0.00,,CLR,0.08,VWS V12.07,2013-04-26 04:22:00,
2013-04-25 23:26:00,32.5,23.8,30.15,SW,231,0.0,0.0,70,0.00,,CLR,0.08,VWS V12.07,2013-04-26 04:26:00,
2013-04-25 23:27:00,32.4,23.7,30.15,SW,231,0.0,0.0,70,0.00,,CLR,0.08,VWS V12.07,2013-04-26 04:27:00,
2013-04-25 23:28:00,32.4,23.7,30.15,SW,231,0.0,0.0,70,0.00,,CLR,0.08,VWS V12.07,2013-04-26 04:28:00,
2013-04-25 23:31:00,32.2,23.5,30.16,SW,231,0.0,0.0,70,0.00,,CLR,0.08,VWS V12.07,2013-04-26 04:31:00,
2013-04-25 23:32:00,32.2,23.5,30.16,SW,231,0.0,0.0,70,0.00,,CLR,0.08,VWS V12.07,2013-04-26 04:32:00,
2013-04-25 23:33:00,32.2,23.5,30.16,SW,231,0.0,0.0,70,0.00,,CLR,0.08,VWS V12.07,2013-04-26 04:33:00,
2013-04-25 23:37:00,32.1,23.8,30.16,SW,231,0.0,0.0,71,0.00,,CLR,0.08,VWS V12.07,2013-04-26 04:37:00,
2013-04-25 23:38:00,32.2,23.9,30.16,SW,231,0.0,0.0,71,0.00,,CLR,0.08,VWS V12.07,2013-04-26 04:38:00,
2013-04-25 23:42:00,32.1,23.8,30.16,SW,231,0.0,0.0,71,0.00,,CLR,0.08,VWS V12.07,2013-04-26 04:42:00,
2013-04-25 23:43:00,32.1,23.8,30.16,SW,231,0.0,0.0,71,0.00,,CLR,0.08,VWS V12.07,2013-04-26 04:43:00,
2013-04-25 23:44:00,32.1,23.8,30.16,SW,231,0.0,0.0,71,0.00,,CLR,0.08,VWS V12.07,2013-04-26 04:44:00,
2013-04-25 23:48:00,31.9,23.9,30.16,SW,231,0.0,0.0,72,0.00,,CLR,0.00,VWS V12.07,2013-04-26 04:48:00,
2013-04-25 23:49:00,31.9,23.9,30.16,SW,231,0.0,0.0,72,0.00,,CLR,0.00,VWS V12.07,2013-04-26 04:49:00,
2013-04-25 23:50:00,31.9,23.9,30.16,SW,231,0.0,0.0,72,0.00,,CLR,0.00,VWS V12.07,2013-04-26 04:50:00,
2013-04-25 23:54:00,31.8,23.8,30.16,SW,231,0.0,0.0,72,0.00,,CLR,0.00,VWS V12.07,2013-04-26 04:54:00,
2013-04-25 23:55:00,31.8,23.8,30.16,SW,231,0.0,0.0,72,0.00,,CLR,0.00,VWS V12.07,2013-04-26 04:55:00,
2013-04-25 23:59:00,31.5,23.9,30.15,SW,231,0.0,0.0,73,0.00,,CLR,0.00,VWS V12.07,2013-04-26 04:59:00,